Observation data for Hackberry on 02/14/2020      Previous  Date  Next       Current Mesonet Observations  Soil Data  Daily Summary Page  Observations in Plain Language
KHA3 140600Z 07008KT M03/M08 A3038 RMK A01 T10331082  RH  069%=      5-min Rain = 0
KHA3 140601Z 07007KT M03/M08 A3038 RMK A01 T10331082  RH  069%=      5-min Rain = 0
KHA3 140602Z 07007KT M03/M08 A3038 RMK A01 T10331082  RH  069%=      5-min Rain = 0
KHA3 140603Z 07007KT M03/M08 A3038 RMK A01 T10331082  RH  069%=      5-min Rain = 0
KHA3 140604Z 07007KT M03/M08 A3038 RMK A01 T10341082  RH  069%=      5-min Rain = 0
KHA3 140605Z 07007KT M04/M08 A3038 RMK A01 T10351082  RH  070%=      5-min Rain = 0
KHA3 140606Z 08007KT M04/M08 A3038 RMK A01 T10351082  RH  070%=      5-min Rain = 0
KHA3 140607Z 08008KT M04/M08 A3038 RMK A01 T10351082  RH  070%=      5-min Rain = 0
KHA3 140608Z 08007KT M04/M08 A3038 RMK A01 T10361081  RH  070%=      5-min Rain = 0
KHA3 140609Z 08007KT M04/M08 A3038 RMK A01 T10361081  RH  071%=      5-min Rain = 0
KHA3 140610Z 07007KT M04/M08 A3038 RMK A01 T10361081  RH  071%=      5-min Rain = 0
KHA3 140611Z 07006KT M04/M08 A3038 RMK A01 T10361081  RH  071%=      5-min Rain = 0
KHA3 140612Z 08007KT M04/M08 A3038 RMK A01 T10371082  RH  071%=      5-min Rain = 0
KHA3 140613Z 07006KT M04/M08 A3038 RMK A01 T10371082  RH  071%=      5-min Rain = 0
KHA3 140614Z 07007KT M04/M08 A3038 RMK A01 T10371081  RH  071%=      5-min Rain = 0
KHA3 140615Z 08006KT M04/M08 A3038 RMK A01 T10371081  RH  071%=      5-min Rain = 0
KHA3 140616Z 08006KT M04/M08 A3038 RMK A01 T10371081  RH  071%=      5-min Rain = 0
KHA3 140617Z 08006KT M04/M08 A3038 RMK A01 T10371081  RH  071%=      5-min Rain = 0
KHA3 140618Z 08006KT M04/M08 A3038 RMK A01 T10371081  RH  071%=      5-min Rain = 0
KHA3 140619Z 08006KT M04/M08 A3039 RMK A01 T10371081  RH  071%=      5-min Rain = 0
KHA3 140620Z 07007KT M04/M08 A3039 RMK A01 T10371081  RH  072%=      5-min Rain = 0
KHA3 140621Z 08006KT M04/M08 A3039 RMK A01 T10371081  RH  072%=      5-min Rain = 0
KHA3 140622Z 08006KT M04/M08 A3039 RMK A01 T10381081  RH  072%=      5-min Rain = 0
KHA3 140623Z 08006KT M04/M08 A3039 RMK A01 T10381081  RH  072%=      5-min Rain = 0
KHA3 140624Z 08006KT M04/M08 A3039 RMK A01 T10381081  RH  072%=      5-min Rain = 0
KHA3 140625Z 08006KT M04/M08 A3039 RMK A01 T10381081  RH  072%=      5-min Rain = 0
KHA3 140626Z 07006KT M04/M08 A3039 RMK A01 T10381080  RH  072%=      5-min Rain = 0
KHA3 140627Z 07006KT M04/M08 A3039 RMK A01 T10381080  RH  072%=      5-min Rain = 0
KHA3 140628Z 07005KT M04/M08 A3039 RMK A01 T10381081  RH  072%=      5-min Rain = 0
KHA3 140629Z 07006KT M04/M08 A3039 RMK A01 T10381080  RH  072%=      5-min Rain = 0
KHA3 140630Z 07006KT M04/M08 A3039 RMK A01 T10381081  RH  072%=      5-min Rain = 0
KHA3 140631Z 07006KT M04/M08 A3039 RMK A01 T10391080  RH  073%=      5-min Rain = 0
KHA3 140632Z 07006KT M04/M08 A3039 RMK A01 T10391080  RH  073%=      5-min Rain = 0
KHA3 140633Z 07006KT M04/M08 A3039 RMK A01 T10391080  RH  073%=      5-min Rain = 0
KHA3 140634Z 07006KT M04/M08 A3038 RMK A01 T10391080  RH  073%=      5-min Rain = 0
KHA3 140635Z 07006KT M04/M08 A3038 RMK A01 T10391080  RH  073%=      5-min Rain = 0
KHA3 140636Z 07006KT M04/M08 A3039 RMK A01 T10401080  RH  073%=      5-min Rain = 0
KHA3 140637Z 07006KT M04/M08 A3039 RMK A01 T10401080  RH  074%=      5-min Rain = 0
KHA3 140638Z 07006KT M04/M08 A3039 RMK A01 T10401080  RH  074%=      5-min Rain = 0
KHA3 140639Z 07006KT M04/M08 A3039 RMK A01 T10401080  RH  074%=      5-min Rain = 0
KHA3 140640Z 07006KT M04/M08 A3038 RMK A01 T10401080  RH  074%=      5-min Rain = 0
KHA3 140641Z 07006KT M04/M08 A3038 RMK A01 T10411080  RH  074%=      5-min Rain = 0
KHA3 140642Z 07007KT M04/M08 A3038 RMK A01 T10411080  RH  074%=      5-min Rain = 0
KHA3 140643Z 07007KT M04/M08 A3038 RMK A01 T10411080  RH  074%=      5-min Rain = 0
KHA3 140644Z 07007KT M04/M08 A3038 RMK A01 T10411080  RH  075%=      5-min Rain = 0
KHA3 140645Z 07007KT M04/M08 A3038 RMK A01 T10411080  RH  075%=      5-min Rain = 0
KHA3 140646Z 07007KT M04/M08 A3038 RMK A01 T10411080  RH  075%=      5-min Rain = 0
KHA3 140647Z 07007KT M04/M08 A3038 RMK A01 T10421080  RH  075%=      5-min Rain = 0
KHA3 140648Z 07007KT M04/M08 A3038 RMK A01 T10421080  RH  075%=      5-min Rain = 0
KHA3 140649Z 07007KT M04/M08 A3038 RMK A01 T10421079  RH  075%=      5-min Rain = 0
KHA3 140650Z 07007KT M04/M08 A3038 RMK A01 T10421080  RH  075%=      5-min Rain = 0
KHA3 140651Z 07007KT M04/M08 A3038 RMK A01 T10421080  RH  075%=      5-min Rain = 0
KHA3 140652Z 07007KT M04/M08 A3038 RMK A01 T10421080  RH  075%=      5-min Rain = 0
KHA3 140653Z 07006KT M04/M08 A3038 RMK A01 T10421080  RH  074%=      5-min Rain = 0
KHA3 140654Z 07006KT M04/M08 A3038 RMK A01 T10411080  RH  074%=      5-min Rain = 0
KHA3 140655Z 07006KT M04/M08 A3038 RMK A01 T10411080  RH  074%=      5-min Rain = 0
KHA3 140656Z 06006KT M04/M08 A3038 RMK A01 T10411080  RH  074%=      5-min Rain = 0
KHA3 140657Z 06006KT M04/M08 A3038 RMK A01 T10411080  RH  074%=      5-min Rain = 0
KHA3 140658Z 06006KT M04/M08 A3038 RMK A01 T10411080  RH  074%=      5-min Rain = 0
KHA3 140659Z 06006KT M04/M08 A3038 RMK A01 T10411081  RH  074%=      5-min Rain = 0
KHA3 140700Z 07006KT M04/M08 A3038 RMK A01 T10411081  RH  074%=      5-min Rain = 0
KHA3 140701Z 07006KT M04/M08 A3038 RMK A01 T10411081  RH  074%=      5-min Rain = 0
KHA3 140702Z 07006KT M04/M08 A3038 RMK A01 T10421081  RH  074%=      5-min Rain = 0
KHA3 140703Z 07006KT M04/M08 A3038 RMK A01 T10421081  RH  074%=      5-min Rain = 0
KHA3 140704Z 07006KT M04/M08 A3038 RMK A01 T10421081  RH  074%=      5-min Rain = 0
KHA3 140705Z 07006KT M04/M08 A3038 RMK A01 T10421081  RH  074%=      5-min Rain = 0
KHA3 140706Z 07006KT M04/M08 A3038 RMK A01 T10421081  RH  074%=      5-min Rain = 0
KHA3 140707Z 06006KT M04/M08 A3038 RMK A01 T10431081  RH  075%=      5-min Rain = 0
KHA3 140708Z 07006KT M04/M08 A3038 RMK A01 T10431082  RH  075%=      5-min Rain = 0
KHA3 140709Z 06006KT M04/M08 A3038 RMK A01 T10441082  RH  075%=      5-min Rain = 0
KHA3 140710Z 06006KT M04/M08 A3038 RMK A01 T10441081  RH  075%=      5-min Rain = 0
KHA3 140711Z 06006KT M05/M08 A3038 RMK A01 T10451082  RH  076%=      5-min Rain = 0
KHA3 140712Z 06007KT M05/M08 A3038 RMK A01 T10461082  RH  076%=      5-min Rain = 0
KHA3 140713Z 06006KT M05/M08 A3038 RMK A01 T10461082  RH  076%=      5-min Rain = 0
KHA3 140714Z 06006KT M05/M08 A3038 RMK A01 T10461082  RH  076%=      5-min Rain = 0
KHA3 140715Z 06006KT M05/M08 A3038 RMK A01 T10461082  RH  076%=      5-min Rain = 0
KHA3 140716Z 06006KT M05/M08 A3038 RMK A01 T10461082  RH  076%=      5-min Rain = 0
KHA3 140717Z 06006KT M05/M08 A3038 RMK A01 T10461082  RH  076%=      5-min Rain = 0
KHA3 140718Z 06006KT M05/M08 A3038 RMK A01 T10461082  RH  076%=      5-min Rain = 0
KHA3 140719Z 06006KT M05/M08 A3038 RMK A01 T10471082  RH  076%=      5-min Rain = 0
KHA3 140720Z 06006KT M05/M08 A3038 RMK A01 T10471083  RH  076%=      5-min Rain = 0
KHA3 140721Z 06006KT M05/M08 A3038 RMK A01 T10471083  RH  076%=      5-min Rain = 0
KHA3 140722Z 06006KT M05/M08 A3038 RMK A01 T10471083  RH  076%=      5-min Rain = 0
KHA3 140723Z 06005KT M05/M08 A3038 RMK A01 T10471082  RH  076%=      5-min Rain = 0
KHA3 140724Z 06005KT M05/M08 A3038 RMK A01 T10471083  RH  076%=      5-min Rain = 0
KHA3 140725Z 06005KT M05/M08 A3038 RMK A01 T10481083  RH  077%=      5-min Rain = 0
KHA3 140726Z 06005KT M05/M08 A3038 RMK A01 T10481083  RH  077%=      5-min Rain = 0
KHA3 140727Z 06005KT M05/M08 A3038 RMK A01 T10491083  RH  077%=      5-min Rain = 0
KHA3 140728Z 06005KT M05/M08 A3038 RMK A01 T10481083  RH  077%=      5-min Rain = 0
KHA3 140729Z 06005KT M05/M08 A3038 RMK A01 T10481083  RH  077%=      5-min Rain = 0
KHA3 140730Z 06005KT M05/M08 A3038 RMK A01 T10491084  RH  077%=      5-min Rain = 0
KHA3 140731Z 06004KT M05/M08 A3038 RMK A01 T10491084  RH  077%=      5-min Rain = 0
KHA3 140732Z 06005KT M05/M08 A3039 RMK A01 T10491084  RH  077%=      5-min Rain = 0
KHA3 140733Z 06004KT M05/M08 A3039 RMK A01 T10491084  RH  077%=      5-min Rain = 0
KHA3 140734Z 06004KT M05/M08 A3039 RMK A01 T10491084  RH  077%=      5-min Rain = 0
KHA3 140735Z 06004KT M05/M09 A3039 RMK A01 T10501085  RH  076%=      5-min Rain = 0
KHA3 140736Z 06004KT M05/M09 A3039 RMK A01 T10501085  RH  076%=      5-min Rain = 0
KHA3 140737Z 06004KT M05/M09 A3039 RMK A01 T10501085  RH  076%=      5-min Rain = 0
KHA3 140738Z 07004KT M05/M09 A3039 RMK A01 T10491085  RH  076%=      5-min Rain = 0
KHA3 140739Z 07004KT M05/M08 A3039 RMK A01 T10501084  RH  077%=      5-min Rain = 0
KHA3 140740Z 07004KT M05/M09 A3039 RMK A01 T10501085  RH  077%=      5-min Rain = 0
KHA3 140741Z 06004KT M05/M09 A3039 RMK A01 T10501085  RH  076%=      5-min Rain = 0
KHA3 140742Z 06003KT M05/M09 A3039 RMK A01 T10501085  RH  077%=      5-min Rain = 0
KHA3 140743Z 06003KT M05/M09 A3039 RMK A01 T10501085  RH  077%=      5-min Rain = 0
KHA3 140744Z 06003KT M05/M08 A3039 RMK A01 T10501084  RH  077%=      5-min Rain = 0
KHA3 140745Z 05003KT M05/M08 A3039 RMK A01 T10501084  RH  077%=      5-min Rain = 0
KHA3 140746Z 05003KT M05/M09 A3039 RMK A01 T10501085  RH  077%=      5-min Rain = 0
KHA3 140747Z 05003KT M05/M09 A3039 RMK A01 T10501085  RH  077%=      5-min Rain = 0
KHA3 140748Z 05003KT M05/M09 A3039 RMK A01 T10501085  RH  077%=      5-min Rain = 0
KHA3 140749Z 05003KT M05/M09 A3039 RMK A01 T10501085  RH  076%=      5-min Rain = 0
KHA3 140750Z 05003KT M05/M09 A3039 RMK A01 T10491085  RH  076%=      5-min Rain = 0
KHA3 140751Z 05003KT M05/M09 A3039 RMK A01 T10501085  RH  076%=      5-min Rain = 0
KHA3 140752Z 05003KT M05/M09 A3039 RMK A01 T10491085  RH  076%=      5-min Rain = 0
KHA3 140753Z 05003KT M05/M09 A3039 RMK A01 T10491085  RH  076%=      5-min Rain = 0
KHA3 140754Z 05003KT M05/M09 A3039 RMK A01 T10491085  RH  076%=      5-min Rain = 0
KHA3 140755Z 05003KT M05/M09 A3039 RMK A01 T10491085  RH  076%=      5-min Rain = 0
KHA3 140756Z 05003KT M05/M09 A3039 RMK A01 T10491085  RH  076%=      5-min Rain = 0
KHA3 140757Z 05003KT M05/M08 A3039 RMK A01 T10491084  RH  076%=      5-min Rain = 0
KHA3 140758Z 05003KT M05/M09 A3039 RMK A01 T10491085  RH  076%=      5-min Rain = 0
KHA3 140759Z 05003KT M05/M09 A3039 RMK A01 T10501085  RH  076%=      5-min Rain = 0
KHA3 140800Z 05003KT M05/M09 A3039 RMK A01 T10501085  RH  076%=      5-min Rain = 0
KHA3 140801Z 05003KT M05/M08 A3039 RMK A01 T10491084  RH  077%=      5-min Rain = 0
KHA3 140802Z 05003KT M05/M08 A3039 RMK A01 T10491084  RH  077%=      5-min Rain = 0
KHA3 140803Z 06003KT M05/M08 A3039 RMK A01 T10501084  RH  077%=      5-min Rain = 0
KHA3 140804Z 05003KT M05/M08 A3039 RMK A01 T10501084  RH  077%=      5-min Rain = 0
KHA3 140805Z 05004KT M05/M08 A3039 RMK A01 T10501084  RH  077%=      5-min Rain = 0
KHA3 140806Z 05004KT M05/M08 A3039 RMK A01 T10491084  RH  077%=      5-min Rain = 0
KHA3 140807Z 05004KT M05/M08 A304 RMK A01 T10501084  RH  077%=      5-min Rain = 0
KHA3 140808Z 05004KT M05/M08 A3039 RMK A01 T10501084  RH  077%=      5-min Rain = 0
KHA3 140809Z 05004KT M05/M08 A3039 RMK A01 T10511084  RH  077%=      5-min Rain = 0
KHA3 140810Z 05005KT M05/M08 A3039 RMK A01 T10511084  RH  078%=      5-min Rain = 0
KHA3 140811Z 05005KT M05/M08 A3039 RMK A01 T10511084  RH  078%=      5-min Rain = 0
KHA3 140812Z 05005KT M05/M08 A3039 RMK A01 T10511084  RH  078%=      5-min Rain = 0
KHA3 140813Z 05005KT M05/M08 A3039 RMK A01 T10511084  RH  078%=      5-min Rain = 0
KHA3 140814Z 05005KT M05/M08 A304 RMK A01 T10521084  RH  078%=      5-min Rain = 0
KHA3 140815Z 05005KT M05/M08 A304 RMK A01 T10521084  RH  078%=      5-min Rain = 0
KHA3 140816Z 05005KT M05/M09 A304 RMK A01 T10531085  RH  078%=      5-min Rain = 0
KHA3 140817Z 05005KT M05/M08 A304 RMK A01 T10531084  RH  079%=      5-min Rain = 0
KHA3 140818Z 05005KT M05/M08 A304 RMK A01 T10531084  RH  079%=      5-min Rain = 0
KHA3 140819Z 05005KT M05/M08 A304 RMK A01 T10541084  RH  079%=      5-min Rain = 0
KHA3 140820Z 05005KT M05/M08 A304 RMK A01 T10541084  RH  079%=      5-min Rain = 0
KHA3 140821Z 05005KT M05/M08 A304 RMK A01 T10541084  RH  079%=      5-min Rain = 0
KHA3 140822Z 05005KT M05/M08 A304 RMK A01 T10541084  RH  079%=      5-min Rain = 0
KHA3 140823Z 05005KT M05/M08 A304 RMK A01 T10541084  RH  080%=      5-min Rain = 0
KHA3 140824Z 05005KT M05/M08 A304 RMK A01 T10541084  RH  080%=      5-min Rain = 0
KHA3 140825Z 05005KT M06/M08 A304 RMK A01 T10551084  RH  080%=      5-min Rain = 0
KHA3 140826Z 05005KT M06/M08 A304 RMK A01 T10551084  RH  080%=      5-min Rain = 0
KHA3 140827Z 05005KT M06/M08 A304 RMK A01 T10551084  RH  080%=      5-min Rain = 0
KHA3 140828Z 06005KT M06/M08 A304 RMK A01 T10551084  RH  080%=      5-min Rain = 0
KHA3 140829Z 06005KT M06/M08 A304 RMK A01 T10551084  RH  080%=      5-min Rain = 0
KHA3 140830Z 06004KT M06/M08 A304 RMK A01 T10561084  RH  080%=      5-min Rain = 0
KHA3 140831Z 06004KT M06/M08 A304 RMK A01 T10551084  RH  080%=      5-min Rain = 0
KHA3 140832Z 06004KT M06/M08 A304 RMK A01 T10561084  RH  080%=      5-min Rain = 0
KHA3 140833Z 06004KT M06/M08 A304 RMK A01 T10561084  RH  080%=      5-min Rain = 0
KHA3 140834Z 06004KT M06/M09 A304 RMK A01 T10561085  RH  080%=      5-min Rain = 0
KHA3 140835Z 06004KT M06/M09 A304 RMK A01 T10561085  RH  080%=      5-min Rain = 0
KHA3 140836Z 06004KT M06/M08 A304 RMK A01 T10551084  RH  080%=      5-min Rain = 0
KHA3 140837Z 06004KT M06/M09 A304 RMK A01 T10561085  RH  080%=      5-min Rain = 0
KHA3 140838Z 06004KT M06/M08 A304 RMK A01 T10561084  RH  080%=      5-min Rain = 0
KHA3 140839Z 06004KT M06/M08 A304 RMK A01 T10561084  RH  080%=      5-min Rain = 0
KHA3 140840Z 06003KT M06/M08 A304 RMK A01 T10561084  RH  080%=      5-min Rain = 0
KHA3 140841Z 06003KT M06/M08 A304 RMK A01 T10561084  RH  080%=      5-min Rain = 0
KHA3 140842Z 06003KT M06/M08 A304 RMK A01 T10551084  RH  080%=      5-min Rain = 0
KHA3 140843Z 06003KT M06/M08 A304 RMK A01 T10561084  RH  080%=      5-min Rain = 0
KHA3 140844Z 06003KT M06/M09 A304 RMK A01 T10561085  RH  081%=      5-min Rain = 0
KHA3 140845Z 06003KT M06/M08 A304 RMK A01 T10561084  RH  081%=      5-min Rain = 0
KHA3 140846Z 06003KT M06/M08 A304 RMK A01 T10561084  RH  081%=      5-min Rain = 0
KHA3 140847Z 06003KT M06/M08 A304 RMK A01 T10571084  RH  081%=      5-min Rain = 0
KHA3 140848Z 06003KT M06/M08 A304 RMK A01 T10571084  RH  082%=      5-min Rain = 0
KHA3 140849Z 06003KT M06/M08 A304 RMK A01 T10571084  RH  082%=      5-min Rain = 0
KHA3 140850Z 06003KT M06/M08 A304 RMK A01 T10571083  RH  082%=      5-min Rain = 0
KHA3 140851Z 06003KT M06/M08 A304 RMK A01 T10571083  RH  082%=      5-min Rain = 0
KHA3 140852Z 06003KT M06/M08 A3039 RMK A01 T10571083  RH  082%=      5-min Rain = 0
KHA3 140853Z 06003KT M06/M08 A304 RMK A01 T10571083  RH  082%=      5-min Rain = 0
KHA3 140854Z 06003KT M06/M08 A304 RMK A01 T10571083  RH  082%=      5-min Rain = 0
KHA3 140855Z 05003KT M06/M08 A304 RMK A01 T10571083  RH  082%=      5-min Rain = 0
KHA3 140856Z 05003KT M06/M08 A304 RMK A01 T10571083  RH  082%=      5-min Rain = 0
KHA3 140857Z 05004KT M06/M08 A3039 RMK A01 T10571083  RH  082%=      5-min Rain = 0
KHA3 140858Z 05004KT M06/M08 A3039 RMK A01 T10571083  RH  082%=      5-min Rain = 0
KHA3 140859Z 05004KT M06/M08 A3039 RMK A01 T10561082  RH  082%=      5-min Rain = 0
KHA3 140900Z 05004KT M06/M08 A3039 RMK A01 T10561082  RH  082%=      5-min Rain = 0
KHA3 140901Z 05004KT M06/M08 A3039 RMK A01 T10561082  RH  082%=      5-min Rain = 0
KHA3 140902Z 05004KT M06/M08 A3039 RMK A01 T10561082  RH  082%=      5-min Rain = 0
KHA3 140903Z 05004KT M06/M08 A3039 RMK A01 T10551082  RH  082%=      5-min Rain = 0
KHA3 140904Z 05004KT M06/M08 A304 RMK A01 T10551082  RH  082%=      5-min Rain = 0
KHA3 140905Z 04004KT M05/M08 A304 RMK A01 T10541082  RH  081%=      5-min Rain = 0
KHA3 140906Z 04004KT M05/M08 A304 RMK A01 T10541082  RH  081%=      5-min Rain = 0
KHA3 140907Z 04004KT M05/M08 A304 RMK A01 T10541083  RH  080%=      5-min Rain = 0
KHA3 140908Z 04004KT M05/M08 A304 RMK A01 T10541083  RH  080%=      5-min Rain = 0
KHA3 140909Z 05004KT M05/M08 A304 RMK A01 T10541083  RH  080%=      5-min Rain = 0
KHA3 140910Z 05004KT M05/M08 A304 RMK A01 T10541083  RH  080%=      5-min Rain = 0
KHA3 140911Z 05004KT M05/M08 A304 RMK A01 T10541083  RH  080%=      5-min Rain = 0
KHA3 140912Z 04004KT M05/M08 A304 RMK A01 T10541083  RH  080%=      5-min Rain = 0
KHA3 140913Z 04004KT M06/M08 A304 RMK A01 T10551083  RH  080%=      5-min Rain = 0
KHA3 140914Z 04004KT M06/M08 A304 RMK A01 T10551083  RH  080%=      5-min Rain = 0
KHA3 140915Z 04004KT M06/M08 A304 RMK A01 T10551083  RH  080%=      5-min Rain = 0
KHA3 140916Z 04004KT M06/M08 A304 RMK A01 T10551083  RH  080%=      5-min Rain = 0
KHA3 140917Z 04004KT M06/M08 A304 RMK A01 T10551083  RH  080%=      5-min Rain = 0
KHA3 140918Z 05004KT M06/M08 A3039 RMK A01 T10551084  RH  080%=      5-min Rain = 0
KHA3 140919Z 05004KT M06/M08 A3039 RMK A01 T10551084  RH  080%=      5-min Rain = 0
KHA3 140920Z 05004KT M06/M08 A3039 RMK A01 T10551084  RH  080%=      5-min Rain = 0
KHA3 140921Z 05004KT M06/M08 A3039 RMK A01 T10551084  RH  080%=      5-min Rain = 0
KHA3 140922Z 05004KT M06/M08 A3039 RMK A01 T10551084  RH  080%=      5-min Rain = 0
KHA3 140923Z 05004KT M06/M08 A3039 RMK A01 T10551084  RH  080%=      5-min Rain = 0
KHA3 140924Z 04004KT M06/M08 A3039 RMK A01 T10551084  RH  080%=      5-min Rain = 0
KHA3 140925Z 04004KT M05/M08 A3039 RMK A01 T10541084  RH  080%=      5-min Rain = 0
KHA3 140926Z 04004KT M05/M08 A304 RMK A01 T10541084  RH  080%=      5-min Rain = 0
KHA3 140927Z 05004KT M05/M08 A3039 RMK A01 T10541084  RH  080%=      5-min Rain = 0
KHA3 140928Z 04004KT M05/M08 A3039 RMK A01 T10541084  RH  080%=      5-min Rain = 0
KHA3 140929Z 04004KT M05/M08 A3039 RMK A01 T10541084  RH  080%=      5-min Rain = 0
KHA3 140930Z 05004KT M05/M08 A3039 RMK A01 T10541083  RH  080%=      5-min Rain = 0
KHA3 140931Z 05004KT M06/M08 A3039 RMK A01 T10551083  RH  080%=      5-min Rain = 0
KHA3 140932Z 05004KT M06/M08 A3039 RMK A01 T10551084  RH  080%=      5-min Rain = 0
KHA3 140933Z 05004KT M06/M08 A3039 RMK A01 T10551084  RH  080%=      5-min Rain = 0
KHA3 140934Z 04004KT M06/M08 A3039 RMK A01 T10561084  RH  081%=      5-min Rain = 0
KHA3 140935Z 04003KT M06/M08 A3039 RMK A01 T10561084  RH  081%=      5-min Rain = 0
KHA3 140936Z 04003KT M06/M08 A3039 RMK A01 T10561084  RH  081%=      5-min Rain = 0
KHA3 140937Z 04003KT M06/M08 A3039 RMK A01 T10561084  RH  081%=      5-min Rain = 0
KHA3 140938Z 04003KT M06/M08 A3039 RMK A01 T10561084  RH  081%=      5-min Rain = 0
KHA3 140939Z 04003KT M06/M08 A3039 RMK A01 T10561083  RH  081%=      5-min Rain = 0
KHA3 140940Z 04003KT M06/M08 A3039 RMK A01 T10571084  RH  081%=      5-min Rain = 0
KHA3 140941Z 04003KT M06/M08 A3039 RMK A01 T10571083  RH  082%=      5-min Rain = 0
KHA3 140942Z 04003KT M06/M08 A3039 RMK A01 T10571084  RH  082%=      5-min Rain = 0
KHA3 140943Z 04003KT M06/M08 A3039 RMK A01 T10581084  RH  082%=      5-min Rain = 0
KHA3 140944Z 04003KT M06/M08 A3039 RMK A01 T10581084  RH  082%=      5-min Rain = 0
KHA3 140945Z 04004KT M06/M08 A3039 RMK A01 T10581084  RH  082%=      5-min Rain = 0
KHA3 140946Z 04003KT M06/M09 A3039 RMK A01 T10581085  RH  081%=      5-min Rain = 0
KHA3 140947Z 04003KT M06/M09 A304 RMK A01 T10581085  RH  081%=      5-min Rain = 0
KHA3 140948Z 04003KT M06/M09 A304 RMK A01 T10581085  RH  081%=      5-min Rain = 0
KHA3 140949Z 04003KT M06/M09 A304 RMK A01 T10581085  RH  081%=      5-min Rain = 0
KHA3 140950Z 04003KT M06/M09 A304 RMK A01 T10581085  RH  081%=      5-min Rain = 0
KHA3 140951Z 04003KT M06/M09 A304 RMK A01 T10581086  RH  081%=      5-min Rain = 0
KHA3 140952Z 04003KT M06/M09 A304 RMK A01 T10581086  RH  080%=      5-min Rain = 0
KHA3 140953Z 04003KT M06/M09 A304 RMK A01 T10571087  RH  080%=      5-min Rain = 0
KHA3 140954Z 04003KT M06/M09 A304 RMK A01 T10571087  RH  080%=      5-min Rain = 0
KHA3 140955Z 03003KT M06/M09 A304 RMK A01 T10571087  RH  079%=      5-min Rain = 0
KHA3 140956Z 03003KT M06/M09 A304 RMK A01 T10571087  RH  079%=      5-min Rain = 0
KHA3 140957Z 03003KT M06/M09 A304 RMK A01 T10571088  RH  079%=      5-min Rain = 0
KHA3 140958Z 03003KT M06/M09 A304 RMK A01 T10561088  RH  079%=      5-min Rain = 0
KHA3 140959Z 02003KT M06/M09 A304 RMK A01 T10561087  RH  079%=      5-min Rain = 0
KHA3 141000Z 02003KT M06/M09 A304 RMK A01 T10561088  RH  079%=      5-min Rain = 0
KHA3 141001Z 03003KT M06/M09 A304 RMK A01 T10571087  RH  079%=      5-min Rain = 0
KHA3 141002Z 03003KT M06/M09 A304 RMK A01 T10571087  RH  079%=      5-min Rain = 0
KHA3 141003Z 03003KT M06/M09 A304 RMK A01 T10561087  RH  079%=      5-min Rain = 0
KHA3 141004Z 03003KT M06/M09 A304 RMK A01 T10571087  RH  079%=      5-min Rain = 0
KHA3 141005Z 03003KT M06/M09 A304 RMK A01 T10571086  RH  080%=      5-min Rain = 0
KHA3 141006Z 02003KT M06/M09 A304 RMK A01 T10571086  RH  080%=      5-min Rain = 0
KHA3 141007Z 01003KT M06/M09 A304 RMK A01 T10571086  RH  080%=      5-min Rain = 0
KHA3 141008Z 01003KT M06/M09 A304 RMK A01 T10571086  RH  080%=      5-min Rain = 0
KHA3 141009Z 01003KT M06/M09 A304 RMK A01 T10571086  RH  081%=      5-min Rain = 0
KHA3 141010Z 00003KT M06/M09 A304 RMK A01 T10571085  RH  081%=      5-min Rain = 0
KHA3 141011Z 00003KT M06/M09 A304 RMK A01 T10571085  RH  081%=      5-min Rain = 0
KHA3 141012Z 00003KT M06/M08 A304 RMK A01 T10571084  RH  081%=      5-min Rain = 0
KHA3 141013Z 00003KT M06/M08 A304 RMK A01 T10571084  RH  082%=      5-min Rain = 0
KHA3 141014Z 00003KT M06/M08 A304 RMK A01 T10571084  RH  082%=      5-min Rain = 0
KHA3 141015Z 00003KT M06/M08 A304 RMK A01 T10571084  RH  082%=      5-min Rain = 0
KHA3 141016Z 00003KT M06/M08 A304 RMK A01 T10571084  RH  082%=      5-min Rain = 0
KHA3 141017Z 36003KT M06/M08 A304 RMK A01 T10571084  RH  082%=      5-min Rain = 0
KHA3 141018Z 35003KT M06/M08 A304 RMK A01 T10571084  RH  082%=      5-min Rain = 0
KHA3 141019Z 34003KT M06/M08 A304 RMK A01 T10581084  RH  082%=      5-min Rain = 0
KHA3 141020Z 35002KT M06/M08 A304 RMK A01 T10581084  RH  082%=      5-min Rain = 0
KHA3 141021Z 35002KT M06/M08 A304 RMK A01 T10581083  RH  083%=      5-min Rain = 0
KHA3 141022Z 35003KT M06/M08 A304 RMK A01 T10581083  RH  083%=      5-min Rain = 0
KHA3 141023Z 35003KT M06/M08 A304 RMK A01 T10591083  RH  083%=      5-min Rain = 0
KHA3 141024Z 35003KT M06/M08 A304 RMK A01 T10591083  RH  083%=      5-min Rain = 0
KHA3 141025Z 35003KT M06/M08 A304 RMK A01 T10591083  RH  083%=      5-min Rain = 0
KHA3 141026Z 35003KT M06/M08 A304 RMK A01 T10581083  RH  083%=      5-min Rain = 0
KHA3 141027Z 35003KT M06/M08 A304 RMK A01 T10591083  RH  083%=      5-min Rain = 0
KHA3 141028Z 35003KT M06/M08 A304 RMK A01 T10591083  RH  083%=      5-min Rain = 0
KHA3 141029Z 35003KT M06/M08 A304 RMK A01 T10591083  RH  084%=      5-min Rain = 0
KHA3 141030Z 35003KT M06/M08 A304 RMK A01 T10601082  RH  084%=      5-min Rain = 0
KHA3 141031Z 35003KT M06/M08 A304 RMK A01 T10601082  RH  084%=      5-min Rain = 0
KHA3 141032Z 34003KT M06/M08 A304 RMK A01 T10601082  RH  084%=      5-min Rain = 0
KHA3 141033Z 35003KT M06/M08 A304 RMK A01 T10611083  RH  085%=      5-min Rain = 0
KHA3 141034Z 34004KT M06/M08 A304 RMK A01 T10611082  RH  085%=      5-min Rain = 0
KHA3 141035Z 34004KT M06/M08 A304 RMK A01 T10621083  RH  085%=      5-min Rain = 0
KHA3 141036Z 34004KT M06/M08 A304 RMK A01 T10621083  RH  085%=      5-min Rain = 0
KHA3 141037Z 34003KT M06/M08 A304 RMK A01 T10621083  RH  086%=      5-min Rain = 0
KHA3 141038Z 35004KT M06/M08 A304 RMK A01 T10631083  RH  086%=      5-min Rain = 0
KHA3 141039Z 35004KT M06/M08 A304 RMK A01 T10641083  RH  086%=      5-min Rain = 0
KHA3 141040Z 35004KT M06/M08 A304 RMK A01 T10641083  RH  086%=      5-min Rain = 0
KHA3 141041Z 35004KT M06/M08 A304 RMK A01 T10641083  RH  087%=      5-min Rain = 0
KHA3 141042Z 35004KT M07/M08 A304 RMK A01 T10651083  RH  087%=      5-min Rain = 0
KHA3 141043Z 35004KT M07/M08 A304 RMK A01 T10651082  RH  087%=      5-min Rain = 0
KHA3 141044Z 35004KT M07/M08 A304 RMK A01 T10651083  RH  087%=      5-min Rain = 0
KHA3 141045Z 35004KT M07/M08 A304 RMK A01 T10651082  RH  088%=      5-min Rain = 0
KHA3 141046Z 35004KT M07/M08 A304 RMK A01 T10661083  RH  088%=      5-min Rain = 0
KHA3 141047Z 35004KT M07/M08 A304 RMK A01 T10661083  RH  088%=      5-min Rain = 0
KHA3 141048Z 35004KT M07/M08 A304 RMK A01 T10661083  RH  088%=      5-min Rain = 0
KHA3 141049Z 35004KT M07/M08 A3041 RMK A01 T10671083  RH  088%=      5-min Rain = 0
KHA3 141050Z 35003KT M07/M08 A3041 RMK A01 T10671083  RH  088%=      5-min Rain = 0
KHA3 141051Z 35003KT M07/M08 A3041 RMK A01 T10671083  RH  088%=      5-min Rain = 0
KHA3 141052Z 35003KT M07/M08 A3041 RMK A01 T10671083  RH  089%=      5-min Rain = 0
KHA3 141053Z 35003KT M07/M08 A3041 RMK A01 T10671083  RH  089%=      5-min Rain = 0
KHA3 141054Z 35003KT M07/M08 A3041 RMK A01 T10671083  RH  089%=      5-min Rain = 0
KHA3 141055Z 35003KT M07/M08 A3041 RMK A01 T10671083  RH  089%=      5-min Rain = 0
KHA3 141056Z 35003KT M07/M08 A3041 RMK A01 T10671083  RH  088%=      5-min Rain = 0
KHA3 141057Z 35003KT M07/M08 A3041 RMK A01 T10671083  RH  088%=      5-min Rain = 0
KHA3 141058Z 35003KT M07/M08 A3041 RMK A01 T10671083  RH  088%=      5-min Rain = 0
KHA3 141059Z 35003KT M07/M08 A3041 RMK A01 T10671083  RH  088%=      5-min Rain = 0
KHA3 141100Z 35003KT M07/M08 A3041 RMK A01 T10671083  RH  088%=      5-min Rain = 0
KHA3 141101Z 35003KT M07/M08 A3041 RMK A01 T10671083  RH  088%=      5-min Rain = 0
KHA3 141102Z 35003KT M07/M08 A3041 RMK A01 T10671083  RH  088%=      5-min Rain = 0
KHA3 141103Z 35003KT M07/M08 A3041 RMK A01 T10671083  RH  088%=      5-min Rain = 0
KHA3 141104Z 35003KT M07/M08 A3041 RMK A01 T10671083  RH  088%=      5-min Rain = 0
KHA3 141105Z 35003KT M07/M08 A3041 RMK A01 T10671083  RH  088%=      5-min Rain = 0
KHA3 141106Z 35003KT M07/M08 A3041 RMK A01 T10671083  RH  088%=      5-min Rain = 0
KHA3 141107Z 35003KT M07/M08 A3041 RMK A01 T10671084  RH  088%=      5-min Rain = 0
KHA3 141108Z 35002KT M07/M08 A3041 RMK A01 T10671083  RH  088%=      5-min Rain = 0
KHA3 141109Z 35002KT M07/M08 A3041 RMK A01 T10671083  RH  088%=      5-min Rain = 0
KHA3 141110Z 35002KT M07/M08 A3041 RMK A01 T10671083  RH  088%=      5-min Rain = 0
KHA3 141111Z 35002KT M07/M08 A3041 RMK A01 T10671083  RH  088%=      5-min Rain = 0
KHA3 141112Z 35002KT M07/M08 A3041 RMK A01 T10671083  RH  088%=      5-min Rain = 0
KHA3 141113Z 35002KT M07/M08 A3041 RMK A01 T10671083  RH  088%=      5-min Rain = 0
KHA3 141114Z 35002KT M07/M08 A3041 RMK A01 T10671083  RH  088%=      5-min Rain = 0
KHA3 141115Z 35002KT M07/M08 A3041 RMK A01 T10671083  RH  088%=      5-min Rain = 0
KHA3 141116Z 35002KT M07/M08 A3041 RMK A01 T10671083  RH  088%=      5-min Rain = 0
KHA3 141117Z 35002KT M07/M08 A3041 RMK A01 T10671084  RH  088%=      5-min Rain = 0
KHA3 141118Z 35001KT M07/M08 A3041 RMK A01 T10671084  RH  088%=      5-min Rain = 0
KHA3 141119Z 34001KT M07/M08 A3041 RMK A01 T10661084  RH  088%=      5-min Rain = 0
KHA3 141120Z 34001KT M07/M08 A3041 RMK A01 T10661083  RH  088%=      5-min Rain = 0
KHA3 141121Z 34001KT M07/M08 A3041 RMK A01 T10671083  RH  088%=      5-min Rain = 0
KHA3 141122Z 35002KT M07/M08 A3041 RMK A01 T10671084  RH  088%=      5-min Rain = 0
KHA3 141123Z 34002KT M07/M08 A3041 RMK A01 T10661083  RH  088%=      5-min Rain = 0
KHA3 141124Z 35001KT M07/M08 A3041 RMK A01 T10661083  RH  088%=      5-min Rain = 0
KHA3 141125Z 35002KT M07/M08 A3041 RMK A01 T10661083  RH  088%=      5-min Rain = 0
KHA3 141126Z 35002KT M07/M08 A3041 RMK A01 T10661083  RH  088%=      5-min Rain = 0
KHA3 141127Z 35002KT M07/M08 A3041 RMK A01 T10661083  RH  088%=      5-min Rain = 0
KHA3 141128Z 35001KT M07/M08 A3041 RMK A01 T10661083  RH  088%=      5-min Rain = 0
KHA3 141129Z 35001KT M07/M08 A3041 RMK A01 T10661083  RH  088%=      5-min Rain = 0
KHA3 141130Z 35001KT M07/M08 A3041 RMK A01 T10661083  RH  088%=      5-min Rain = 0
KHA3 141131Z 35001KT M07/M08 A3041 RMK A01 T10661084  RH  088%=      5-min Rain = 0
KHA3 141132Z 35001KT M07/M08 A3041 RMK A01 T10661083  RH  088%=      5-min Rain = 0
KHA3 141133Z 35001KT M07/M08 A3041 RMK A01 T10661083  RH  088%=      5-min Rain = 0
KHA3 141134Z 35001KT M07/M08 A3041 RMK A01 T10661083  RH  088%=      5-min Rain = 0
KHA3 141135Z 35001KT M07/M08 A3041 RMK A01 T10661083  RH  088%=      5-min Rain = 0
KHA3 141136Z 35001KT M07/M08 A3041 RMK A01 T10661083  RH  088%=      5-min Rain = 0
KHA3 141137Z 35001KT M07/M08 A3041 RMK A01 T10661083  RH  088%=      5-min Rain = 0
KHA3 141138Z 35001KT M07/M08 A3041 RMK A01 T10661083  RH  088%=      5-min Rain = 0
KHA3 141139Z 35001KT M07/M08 A3041 RMK A01 T10661083  RH  088%=      5-min Rain = 0
KHA3 141140Z 35000KT M07/M08 A3041 RMK A01 T10661083  RH  088%=      5-min Rain = 0
KHA3 141141Z 35000KT M07/M08 A3041 RMK A01 T10661083  RH  088%=      5-min Rain = 0
KHA3 141142Z 35000KT M07/M08 A3041 RMK A01 T10661084  RH  088%=      5-min Rain = 0
KHA3 141143Z 00000KT M07/M08 A3041 RMK A01 T10661084  RH  087%=      5-min Rain = 0
KHA3 141144Z 35000KT M07/M08 A3041 RMK A01 T10661084  RH  087%=      5-min Rain = 0
KHA3 141145Z 35001KT M07/M08 A3041 RMK A01 T10671084  RH  087%=      5-min Rain = 0
KHA3 141146Z 35001KT M07/M08 A3041 RMK A01 T10661084  RH  087%=      5-min Rain = 0
KHA3 141147Z 35001KT M07/M08 A3041 RMK A01 T10661084  RH  087%=      5-min Rain = 0
KHA3 141148Z 35001KT M07/M09 A3041 RMK A01 T10661085  RH  087%=      5-min Rain = 0
KHA3 141149Z 35001KT M07/M08 A3041 RMK A01 T10661084  RH  087%=      5-min Rain = 0
KHA3 141150Z 36001KT M07/M08 A3041 RMK A01 T10661084  RH  087%=      5-min Rain = 0
KHA3 141151Z 00002KT M07/M08 A304 RMK A01 T10661084  RH  087%=      5-min Rain = 0
KHA3 141152Z 01002KT M07/M08 A304 RMK A01 T10661084  RH  087%=      5-min Rain = 0
KHA3 141153Z 01002KT M07/M08 A304 RMK A01 T10661084  RH  087%=      5-min Rain = 0
KHA3 141154Z 01002KT M07/M09 A304 RMK A01 T10661085  RH  087%=      5-min Rain = 0
KHA3 141155Z 01001KT M07/M09 A304 RMK A01 T10671085  RH  087%=      5-min Rain = 0
KHA3 141156Z 01002KT M07/M08 A304 RMK A01 T10661084  RH  087%=      5-min Rain = 0
KHA3 141157Z 01001KT M07/M09 A304 RMK A01 T10671085  RH  087%=      5-min Rain = 0
KHA3 141158Z 01001KT M07/M09 A304 RMK A01 T10671085  RH  087%=      5-min Rain = 0
KHA3 141159Z 01001KT M07/M09 A304 RMK A01 T10671085  RH  087%=      5-min Rain = 0
KHA3 141200Z 00001KT M07/M09 A304 RMK A01 T10671085  RH  087%=      5-min Rain = 0
KHA3 141201Z 01001KT M07/M09 A304 RMK A01 T10681085  RH  088%=      5-min Rain = 0
KHA3 141202Z 01002KT M07/M09 A304 RMK A01 T10681085  RH  088%=      5-min Rain = 0
KHA3 141203Z 01002KT M07/M09 A304 RMK A01 T10681085  RH  088%=      5-min Rain = 0
KHA3 141204Z 01002KT M07/M09 A304 RMK A01 T10681085  RH  088%=      5-min Rain = 0
KHA3 141205Z 00002KT M07/M09 A304 RMK A01 T10681085  RH  088%=      5-min Rain = 0
KHA3 141206Z 01002KT M07/M09 A304 RMK A01 T10681085  RH  088%=      5-min Rain = 0
KHA3 141207Z 01002KT M07/M09 A304 RMK A01 T10681085  RH  088%=      5-min Rain = 0
KHA3 141208Z 01002KT M07/M09 A304 RMK A01 T10681085  RH  088%=      5-min Rain = 0
KHA3 141209Z 01003KT M07/M09 A304 RMK A01 T10681085  RH  088%=      5-min Rain = 0
KHA3 141210Z 01003KT M07/M09 A304 RMK A01 T10681085  RH  088%=      5-min Rain = 0
KHA3 141211Z 01003KT M07/M09 A304 RMK A01 T10681085  RH  088%=      5-min Rain = 0
KHA3 141212Z 01003KT M07/M09 A304 RMK A01 T10691085  RH  088%=      5-min Rain = 0
KHA3 141213Z 01003KT M07/M09 A304 RMK A01 T10691085  RH  088%=      5-min Rain = 0
KHA3 141214Z 01003KT M07/M09 A304 RMK A01 T10691086  RH  088%=      5-min Rain = 0
KHA3 141215Z 00003KT M07/M09 A304 RMK A01 T10691085  RH  088%=      5-min Rain = 0
KHA3 141216Z 01003KT M07/M09 A304 RMK A01 T10691085  RH  088%=      5-min Rain = 0
KHA3 141217Z 02003KT M07/M09 A304 RMK A01 T10701086  RH  088%=      5-min Rain = 0
KHA3 141218Z 01003KT M07/M09 A304 RMK A01 T10701086  RH  088%=      5-min Rain = 0
KHA3 141219Z 01002KT M07/M09 A304 RMK A01 T10701086  RH  088%=      5-min Rain = 0
KHA3 141220Z 01002KT M07/M09 A304 RMK A01 T10701086  RH  089%=      5-min Rain = 0
KHA3 141221Z 01002KT M07/M09 A304 RMK A01 T10701085  RH  089%=      5-min Rain = 0
KHA3 141222Z 01003KT M07/M09 A304 RMK A01 T10701086  RH  089%=      5-min Rain = 0
KHA3 141223Z 01002KT M07/M09 A304 RMK A01 T10701086  RH  089%=      5-min Rain = 0
KHA3 141224Z 01002KT M07/M09 A304 RMK A01 T10701086  RH  089%=      5-min Rain = 0
KHA3 141225Z 01002KT M07/M09 A304 RMK A01 T10701086  RH  089%=      5-min Rain = 0
KHA3 141226Z 01002KT M07/M09 A304 RMK A01 T10701085  RH  089%=      5-min Rain = 0
KHA3 141227Z 01002KT M07/M09 A3041 RMK A01 T10701085  RH  089%=      5-min Rain = 0
KHA3 141228Z 01002KT M07/M09 A3041 RMK A01 T10701085  RH  089%=      5-min Rain = 0
KHA3 141229Z 00002KT M07/M09 A3041 RMK A01 T10701085  RH  089%=      5-min Rain = 0
KHA3 141230Z 35002KT M07/M09 A3041 RMK A01 T10701085  RH  089%=      5-min Rain = 0
KHA3 141231Z 35002KT M07/M09 A3041 RMK A01 T10701085  RH  089%=      5-min Rain = 0
KHA3 141232Z 35001KT M07/M09 A3041 RMK A01 T10701085  RH  089%=      5-min Rain = 0
KHA3 141233Z 35001KT M07/M09 A3041 RMK A01 T10701085  RH  089%=      5-min Rain = 0
KHA3 141234Z 00001KT M07/M09 A3041 RMK A01 T10701085  RH  089%=      5-min Rain = 0
KHA3 141235Z 00001KT M07/M09 A3041 RMK A01 T10701085  RH  089%=      5-min Rain = 0
KHA3 141236Z 00001KT M07/M09 A3041 RMK A01 T10711085  RH  090%=      5-min Rain = 0
KHA3 141237Z 00001KT M07/M09 A3041 RMK A01 T10711085  RH  090%=      5-min Rain = 0
KHA3 141238Z 00001KT M07/M09 A3041 RMK A01 T10711085  RH  090%=      5-min Rain = 0
KHA3 141239Z 00001KT M07/M09 A3041 RMK A01 T10701085  RH  090%=      5-min Rain = 0
KHA3 141240Z 00001KT M07/M09 A3041 RMK A01 T10711085  RH  090%=      5-min Rain = 0
KHA3 141241Z 00001KT M07/M09 A3041 RMK A01 T10711085  RH  090%=      5-min Rain = 0
KHA3 141242Z 00000KT M07/M09 A3041 RMK A01 T10701085  RH  090%=      5-min Rain = 0
KHA3 141243Z 00001KT M07/M09 A3041 RMK A01 T10711085  RH  090%=      5-min Rain = 0
KHA3 141244Z 00001KT M07/M09 A3041 RMK A01 T10711086  RH  089%=      5-min Rain = 0
KHA3 141245Z 00001KT M07/M09 A3041 RMK A01 T10711085  RH  089%=      5-min Rain = 0
KHA3 141246Z 01001KT M07/M09 A3041 RMK A01 T10711086  RH  089%=      5-min Rain = 0
KHA3 141247Z 01001KT M07/M09 A3041 RMK A01 T10711086  RH  089%=      5-min Rain = 0
KHA3 141248Z 01001KT M07/M09 A3041 RMK A01 T10711086  RH  089%=      5-min Rain = 0
KHA3 141249Z 01001KT M07/M09 A3041 RMK A01 T10711085  RH  090%=      5-min Rain = 0
KHA3 141250Z 01001KT M07/M09 A3041 RMK A01 T10711086  RH  090%=      5-min Rain = 0
KHA3 141251Z 01001KT M07/M09 A3041 RMK A01 T10711085  RH  090%=      5-min Rain = 0
KHA3 141252Z 01001KT M07/M09 A3041 RMK A01 T10711085  RH  089%=      5-min Rain = 0
KHA3 141253Z 01002KT M07/M09 A3041 RMK A01 T10711086  RH  089%=      5-min Rain = 0
KHA3 141254Z 01002KT M07/M09 A3041 RMK A01 T10711086  RH  089%=      5-min Rain = 0
KHA3 141255Z 01001KT M07/M09 A3041 RMK A01 T10701085  RH  089%=      5-min Rain = 0
KHA3 141256Z 01001KT M07/M09 A3041 RMK A01 T10701085  RH  089%=      5-min Rain = 0
KHA3 141257Z 01001KT M07/M09 A3041 RMK A01 T10701086  RH  089%=      5-min Rain = 0
KHA3 141258Z 01001KT M07/M09 A3041 RMK A01 T10701086  RH  089%=      5-min Rain = 0
KHA3 141259Z 01001KT M07/M09 A3041 RMK A01 T10701085  RH  089%=      5-min Rain = 0
KHA3 141300Z 02001KT M07/M09 A3041 RMK A01 T10701085  RH  089%=      5-min Rain = 0
KHA3 141301Z 02002KT M07/M09 A3041 RMK A01 T10701085  RH  089%=      5-min Rain = 0
KHA3 141302Z 02002KT M07/M09 A3041 RMK A01 T10701085  RH  089%=      5-min Rain = 0
KHA3 141303Z 02001KT M07/M09 A3041 RMK A01 T10701085  RH  089%=      5-min Rain = 0
KHA3 141304Z 02001KT M07/M09 A3041 RMK A01 T10701085  RH  089%=      5-min Rain = 0
KHA3 141305Z 02001KT M07/M09 A3041 RMK A01 T10701085  RH  089%=      5-min Rain = 0
KHA3 141306Z 02001KT M07/M09 A3041 RMK A01 T10701085  RH  089%=      5-min Rain = 0
KHA3 141307Z 02001KT M07/M09 A3041 RMK A01 T10701085  RH  089%=      5-min Rain = 0
KHA3 141308Z 02001KT M07/M09 A3041 RMK A01 T10701085  RH  089%=      5-min Rain = 0
KHA3 141309Z 02001KT M07/M09 A3041 RMK A01 T10711085  RH  089%=      5-min Rain = 0
KHA3 141310Z 02001KT M07/M09 A3041 RMK A01 T10711086  RH  089%=      5-min Rain = 0
KHA3 141311Z 02001KT M07/M09 A3041 RMK A01 T10711086  RH  089%=      5-min Rain = 0
KHA3 141312Z 02001KT M07/M09 A3041 RMK A01 T10711086  RH  089%=      5-min Rain = 0
KHA3 141313Z 02001KT M07/M09 A3041 RMK A01 T10711086  RH  089%=      5-min Rain = 0
KHA3 141314Z 02001KT M07/M09 A3041 RMK A01 T10711086  RH  089%=      5-min Rain = 0
KHA3 141315Z 02001KT M07/M09 A3041 RMK A01 T10711086  RH  089%=      5-min Rain = 0
KHA3 141316Z 02001KT M07/M09 A3041 RMK A01 T10721086  RH  089%=      5-min Rain = 0
KHA3 141317Z 02001KT M07/M09 A3041 RMK A01 T10721086  RH  089%=      5-min Rain = 0
KHA3 141318Z 02001KT M07/M09 A3041 RMK A01 T10721086  RH  090%=      5-min Rain = 0
KHA3 141319Z 02001KT M07/M09 A3041 RMK A01 T10711086  RH  090%=      5-min Rain = 0
KHA3 141320Z 02001KT M07/M09 A3041 RMK A01 T10721086  RH  090%=      5-min Rain = 0
KHA3 141321Z 02001KT M07/M09 A3041 RMK A01 T10721086  RH  090%=      5-min Rain = 0
KHA3 141322Z 02000KT M07/M09 A3041 RMK A01 T10711086  RH  090%=      5-min Rain = 0
KHA3 141323Z 00000KT M07/M09 A3041 RMK A01 T10721086  RH  090%=      5-min Rain = 0
KHA3 141324Z 00000KT M07/M09 A3041 RMK A01 T10721086  RH  090%=      5-min Rain = 0
KHA3 141325Z 00000KT M07/M09 A3041 RMK A01 T10711085  RH  090%=      5-min Rain = 0
KHA3 141326Z 00000KT M07/M09 A3041 RMK A01 T10721085  RH  090%=      5-min Rain = 0
KHA3 141327Z 00000KT M07/M09 A3041 RMK A01 T10721086  RH  090%=      5-min Rain = 0
KHA3 141328Z 00000KT M07/M09 A3041 RMK A01 T10721086  RH  090%=      5-min Rain = 0
KHA3 141329Z 00000KT M07/M09 A3041 RMK A01 T10711085  RH  090%=      5-min Rain = 0
KHA3 141330Z 00000KT M07/M09 A3041 RMK A01 T10711086  RH  089%=      5-min Rain = 0
KHA3 141331Z 00000KT M07/M09 A3041 RMK A01 T10711086  RH  089%=      5-min Rain = 0
KHA3 141332Z 00000KT M07/M09 A3041 RMK A01 T10701085  RH  089%=      5-min Rain = 0
KHA3 141333Z 00000KT M07/M09 A3041 RMK A01 T10701085  RH  089%=      5-min Rain = 0
KHA3 141334Z 00000KT M07/M09 A3042 RMK A01 T10701085  RH  089%=      5-min Rain = 0
KHA3 141335Z 00000KT M07/M08 A3042 RMK A01 T10691083  RH  089%=      5-min Rain = 0
KHA3 141336Z 00000KT M07/M08 A3042 RMK A01 T10681083  RH  089%=      5-min Rain = 0
KHA3 141337Z 00000KT M07/M08 A3042 RMK A01 T10681082  RH  089%=      5-min Rain = 0
KHA3 141338Z 00000KT M07/M08 A3042 RMK A01 T10671082  RH  089%=      5-min Rain = 0
KHA3 141339Z 00000KT M07/M08 A3042 RMK A01 T10661081  RH  089%=      5-min Rain = 0
KHA3 141340Z 00000KT M07/M08 A3042 RMK A01 T10661081  RH  089%=      5-min Rain = 0
KHA3 141341Z 00000KT M07/M08 A3042 RMK A01 T10661080  RH  089%=      5-min Rain = 0
KHA3 141342Z 00000KT M07/M08 A3042 RMK A01 T10651080  RH  089%=      5-min Rain = 0
KHA3 141343Z 00000KT M07/M08 A3042 RMK A01 T10651080  RH  089%=      5-min Rain = 0
KHA3 141344Z 00000KT M07/M08 A3042 RMK A01 T10651080  RH  089%=      5-min Rain = 0
KHA3 141345Z 00000KT M06/M08 A3042 RMK A01 T10641079  RH  089%=      5-min Rain = 0
KHA3 141346Z 00000KT M06/M08 A3042 RMK A01 T10641080  RH  088%=      5-min Rain = 0
KHA3 141347Z 00000KT M06/M08 A3042 RMK A01 T10641081  RH  088%=      5-min Rain = 0
KHA3 141348Z 00000KT M06/M08 A3042 RMK A01 T10631081  RH  088%=      5-min Rain = 0
KHA3 141349Z 00000KT M06/M08 A3042 RMK A01 T10631080  RH  088%=      5-min Rain = 0
KHA3 141350Z 00000KT M06/M08 A3042 RMK A01 T10631079  RH  088%=      5-min Rain = 0
KHA3 141351Z 00000KT M06/M08 A3042 RMK A01 T10621079  RH  088%=      5-min Rain = 0
KHA3 141352Z 00000KT M06/M08 A3042 RMK A01 T10611080  RH  087%=      5-min Rain = 0
KHA3 141353Z 00000KT M06/M08 A3042 RMK A01 T10611081  RH  086%=      5-min Rain = 0
KHA3 141354Z 00000KT M06/M08 A3042 RMK A01 T10601081  RH  085%=      5-min Rain = 0
KHA3 141355Z 00000KT M06/M08 A3042 RMK A01 T10601080  RH  085%=      5-min Rain = 0
KHA3 141356Z 00000KT M06/M08 A3043 RMK A01 T10591080  RH  086%=      5-min Rain = 0
KHA3 141357Z 00000KT M06/M08 A3043 RMK A01 T10591079  RH  086%=      5-min Rain = 0
KHA3 141358Z 00000KT M06/M08 A3043 RMK A01 T10591078  RH  086%=      5-min Rain = 0
KHA3 141359Z 00000KT M06/M08 A3043 RMK A01 T10591078  RH  086%=      5-min Rain = 0
KHA3 141400Z 00000KT M06/M08 A3043 RMK A01 T10591079  RH  086%=      5-min Rain = 0
KHA3 141401Z 02000KT M06/M08 A3042 RMK A01 T10581078  RH  086%=      5-min Rain = 0
KHA3 141402Z 02000KT M06/M08 A3043 RMK A01 T10581078  RH  086%=      5-min Rain = 0
KHA3 141403Z 00000KT M06/M08 A3043 RMK A01 T10581078  RH  086%=      5-min Rain = 0
KHA3 141404Z 02000KT M06/M08 A3043 RMK A01 T10581078  RH  086%=      5-min Rain = 0
KHA3 141405Z 03001KT M06/M08 A3043 RMK A01 T10581078  RH  086%=      5-min Rain = 0
KHA3 141406Z 03001KT M06/M08 A3043 RMK A01 T10581078  RH  085%=      5-min Rain = 0
KHA3 141407Z 02001KT M06/M08 A3043 RMK A01 T10581080  RH  085%=      5-min Rain = 0
KHA3 141408Z 04001KT M06/M08 A3043 RMK A01 T10571078  RH  085%=      5-min Rain = 0
KHA3 141409Z 03001KT M06/M08 A3043 RMK A01 T10571078  RH  085%=      5-min Rain = 0
KHA3 141410Z 04002KT M06/M08 A3043 RMK A01 T10561079  RH  084%=      5-min Rain = 0
KHA3 141411Z 03002KT M06/M08 A3043 RMK A01 T10561078  RH  085%=      5-min Rain = 0
KHA3 141412Z 04002KT M06/M08 A3043 RMK A01 T10561078  RH  085%=      5-min Rain = 0
KHA3 141413Z 05001KT M06/M08 A3043 RMK A01 T10561079  RH  084%=      5-min Rain = 0
KHA3 141414Z 06002KT M06/M08 A3043 RMK A01 T10561079  RH  083%=      5-min Rain = 0
KHA3 141415Z 06002KT M06/M08 A3043 RMK A01 T10551078  RH  084%=      5-min Rain = 0
KHA3 141416Z 06002KT M06/M08 A3043 RMK A01 T10551079  RH  083%=      5-min Rain = 0
KHA3 141417Z 04002KT M06/M08 A3043 RMK A01 T10551079  RH  083%=      5-min Rain = 0
KHA3 141418Z 04003KT M06/M08 A3043 RMK A01 T10551079  RH  083%=      5-min Rain = 0
KHA3 141419Z 05003KT M05/M08 A3043 RMK A01 T10541079  RH  083%=      5-min Rain = 0
KHA3 141420Z 05003KT M05/M08 A3043 RMK A01 T10541080  RH  082%=      5-min Rain = 0
KHA3 141421Z 05003KT M05/M08 A3043 RMK A01 T10541080  RH  082%=      5-min Rain = 0
KHA3 141422Z 05003KT M05/M08 A3043 RMK A01 T10531079  RH  082%=      5-min Rain = 0
KHA3 141423Z 05003KT M05/M08 A3043 RMK A01 T10531079  RH  082%=      5-min Rain = 0
KHA3 141424Z 06004KT M05/M08 A3043 RMK A01 T10521079  RH  082%=      5-min Rain = 0
KHA3 141425Z 06003KT M05/M08 A3043 RMK A01 T10521079  RH  081%=      5-min Rain = 0
KHA3 141426Z 06003KT M05/M08 A3043 RMK A01 T10521079  RH  081%=      5-min Rain = 0
KHA3 141427Z 07003KT M05/M08 A3043 RMK A01 T10521080  RH  080%=      5-min Rain = 0
KHA3 141428Z 06002KT M05/M08 A3043 RMK A01 T10511080  RH  080%=      5-min Rain = 0
KHA3 141429Z 05003KT M05/M08 A3043 RMK A01 T10511080  RH  080%=      5-min Rain = 0
KHA3 141430Z 06002KT M05/M08 A3043 RMK A01 T10501078  RH  081%=      5-min Rain = 0
KHA3 141431Z 06002KT M05/M08 A3044 RMK A01 T10501079  RH  080%=      5-min Rain = 0
KHA3 141432Z 07002KT M05/M08 A3044 RMK A01 T10491078  RH  080%=      5-min Rain = 0
KHA3 141433Z 08002KT M05/M08 A3044 RMK A01 T10481075  RH  082%=      5-min Rain = 0
KHA3 141434Z 08002KT M05/M07 A3044 RMK A01 T10481074  RH  082%=      5-min Rain = 0
KHA3 141435Z 08003KT M05/M07 A3044 RMK A01 T10471073  RH  082%=      5-min Rain = 0
KHA3 141436Z 07003KT M05/M07 A3044 RMK A01 T10471074  RH  082%=      5-min Rain = 0
KHA3 141437Z 07003KT M05/M07 A3044 RMK A01 T10471073  RH  082%=      5-min Rain = 0
KHA3 141438Z 07003KT M05/M07 A3044 RMK A01 T10461074  RH  081%=      5-min Rain = 0
KHA3 141439Z 07004KT M05/M08 A3044 RMK A01 T10461075  RH  080%=      5-min Rain = 0
KHA3 141440Z 07004KT M05/M08 A3044 RMK A01 T10461077  RH  079%=      5-min Rain = 0
KHA3 141441Z 07004KT M05/M08 A3044 RMK A01 T10471078  RH  079%=      5-min Rain = 0
KHA3 141442Z 07004KT M05/M08 A3044 RMK A01 T10471076  RH  080%=      5-min Rain = 0
KHA3 141443Z 07003KT M05/M08 A3044 RMK A01 T10461077  RH  079%=      5-min Rain = 0
KHA3 141444Z 06003KT M05/M08 A3044 RMK A01 T10471078  RH  079%=      5-min Rain = 0
KHA3 141445Z 06003KT M05/M07 A3044 RMK A01 T10461074  RH  081%=      5-min Rain = 0
KHA3 141446Z 06005KT M05/M07 A3044 RMK A01 T10461073  RH  081%=      5-min Rain = 0
KHA3 141447Z 06004KT M05/M08 A3044 RMK A01 T10461075  RH  080%=      5-min Rain = 0
KHA3 141448Z 06004KT M05/M08 A3044 RMK A01 T10461075  RH  080%=      5-min Rain = 0
KHA3 141449Z 07005KT M05/M08 A3044 RMK A01 T10461077  RH  079%=      5-min Rain = 0
KHA3 141450Z 07005KT M05/M08 A3044 RMK A01 T10461077  RH  079%=      5-min Rain = 0
KHA3 141451Z 06004KT M05/M08 A3044 RMK A01 T10461076  RH  079%=      5-min Rain = 0
KHA3 141452Z 06004KT M05/M08 A3044 RMK A01 T10451076  RH  079%=      5-min Rain = 0
KHA3 141453Z 07004KT M05/M08 A3044 RMK A01 T10451075  RH  080%=      5-min Rain = 0
KHA3 141454Z 06005KT M04/M07 A3044 RMK A01 T10441073  RH  080%=      5-min Rain = 0
KHA3 141455Z 07005KT M04/M08 A3044 RMK A01 T10441075  RH  079%=      5-min Rain = 0
KHA3 141456Z 08005KT M04/M08 A3044 RMK A01 T10441076  RH  079%=      5-min Rain = 0
KHA3 141457Z 07005KT M04/M08 A3044 RMK A01 T10441075  RH  079%=      5-min Rain = 0
KHA3 141458Z 07004KT M04/M08 A3044 RMK A01 T10441076  RH  078%=      5-min Rain = 0
KHA3 141459Z 07004KT M04/M07 A3044 RMK A01 T10431074  RH  079%=      5-min Rain = 0
KHA3 141500Z 08004KT M04/M08 A3044 RMK A01 T10431076  RH  078%=      5-min Rain = 0
KHA3 141501Z 07005KT M04/M08 A3044 RMK A01 T10441076  RH  078%=      5-min Rain = 0
KHA3 141502Z 08005KT M04/M08 A3044 RMK A01 T10441076  RH  078%=      5-min Rain = 0
KHA3 141503Z 09004KT M04/M08 A3044 RMK A01 T10431076  RH  078%=      5-min Rain = 0
KHA3 141504Z 09004KT M04/M08 A3044 RMK A01 T10431077  RH  077%=      5-min Rain = 0
KHA3 141505Z 08005KT M04/M08 A3044 RMK A01 T10431077  RH  077%=      5-min Rain = 0
KHA3 141506Z 08004KT M04/M08 A3044 RMK A01 T10431076  RH  078%=      5-min Rain = 0
KHA3 141507Z 09005KT M04/M07 A3044 RMK A01 T10421072  RH  080%=      5-min Rain = 0
KHA3 141508Z 09004KT M04/M07 A3044 RMK A01 T10411072  RH  079%=      5-min Rain = 0
KHA3 141509Z 10006KT M04/M07 A3044 RMK A01 T10411074  RH  078%=      5-min Rain = 0
KHA3 141510Z 10006KT M04/M08 A3044 RMK A01 T10411076  RH  076%=      5-min Rain = 0
KHA3 141511Z 09004KT M04/M08 A3044 RMK A01 T10411079  RH  075%=      5-min Rain = 0
KHA3 141512Z 09006KT M04/M08 A3044 RMK A01 T10411078  RH  075%=      5-min Rain = 0
KHA3 141513Z 09006KT M04/M08 A3044 RMK A01 T10401076  RH  076%=      5-min Rain = 0
KHA3 141514Z 09005KT M04/M08 A3044 RMK A01 T10401076  RH  076%=      5-min Rain = 0
KHA3 141515Z 09006KT M04/M08 A3044 RMK A01 T10401077  RH  076%=      5-min Rain = 0
KHA3 141516Z 09005KT M04/M08 A3044 RMK A01 T10401076  RH  076%=      5-min Rain = 0
KHA3 141517Z 09004KT M04/M08 A3044 RMK A01 T10401076  RH  076%=      5-min Rain = 0
KHA3 141518Z 08004KT M04/M07 A3044 RMK A01 T10391072  RH  078%=      5-min Rain = 0
KHA3 141519Z 10005KT M04/M07 A3044 RMK A01 T10381069  RH  079%=      5-min Rain = 0
KHA3 141520Z 10007KT M04/M07 A3044 RMK A01 T10371073  RH  076%=      5-min Rain = 0
KHA3 141521Z 09007KT M04/M08 A3044 RMK A01 T10381076  RH  075%=      5-min Rain = 0
KHA3 141522Z 09007KT M04/M08 A3044 RMK A01 T10391078  RH  074%=      5-min Rain = 0
KHA3 141523Z 09007KT M04/M08 A3044 RMK A01 T10391077  RH  075%=      5-min Rain = 0
KHA3 141524Z 09006KT M04/M08 A3044 RMK A01 T10381076  RH  075%=      5-min Rain = 0
KHA3 141525Z 09006KT M04/M08 A3044 RMK A01 T10381075  RH  075%=      5-min Rain = 0
KHA3 141526Z 09005KT M04/M08 A3044 RMK A01 T10371075  RH  075%=      5-min Rain = 0
KHA3 141527Z 08006KT M04/M07 A3044 RMK A01 T10361073  RH  076%=      5-min Rain = 0
KHA3 141528Z 09006KT M04/M07 A3044 RMK A01 T10361073  RH  075%=      5-min Rain = 0
KHA3 141529Z 09006KT M04/M07 A3044 RMK A01 T10361074  RH  075%=      5-min Rain = 0
KHA3 141530Z 09007KT M04/M07 A3043 RMK A01 T10351074  RH  075%=      5-min Rain = 0
KHA3 141531Z 09007KT M04/M08 A3043 RMK A01 T10351075  RH  074%=      5-min Rain = 0
KHA3 141532Z 10006KT M04/M08 A3043 RMK A01 T10351076  RH  074%=      5-min Rain = 0
KHA3 141533Z 08006KT M04/M08 A3043 RMK A01 T10361076  RH  073%=      5-min Rain = 0
KHA3 141534Z 09007KT M04/M08 A3043 RMK A01 T10361076  RH  074%=      5-min Rain = 0
KHA3 141535Z 10007KT M04/M08 A3043 RMK A01 T10351076  RH  073%=      5-min Rain = 0
KHA3 141536Z 10005KT M03/M08 A3043 RMK A01 T10341075  RH  073%=      5-min Rain = 0
KHA3 141537Z 11006KT M03/M07 A3043 RMK A01 T10331073  RH  074%=      5-min Rain = 0
KHA3 141538Z 10007KT M03/M07 A3043 RMK A01 T10321072  RH  074%=      5-min Rain = 0
KHA3 141539Z 11008KT M03/M07 A3043 RMK A01 T10321074  RH  073%=      5-min Rain = 0
KHA3 141540Z 10008KT M03/M08 A3043 RMK A01 T10321075  RH  072%=      5-min Rain = 0
KHA3 141541Z 10008KT M03/M08 A3043 RMK A01 T10321075  RH  072%=      5-min Rain = 0
KHA3 141542Z 11007KT M03/M08 A3043 RMK A01 T10321075  RH  072%=      5-min Rain = 0
KHA3 141543Z 10008KT M03/M08 A3043 RMK A01 T10321075  RH  072%=      5-min Rain = 0
KHA3 141544Z 10008KT M03/M08 A3043 RMK A01 T10311075  RH  072%=      5-min Rain = 0
KHA3 141545Z 11006KT M03/M08 A3043 RMK A01 T10311076  RH  071%=      5-min Rain = 0
KHA3 141546Z 11007KT M03/M08 A3043 RMK A01 T10301075  RH  071%=      5-min Rain = 0
KHA3 141547Z 11008KT M03/M08 A3043 RMK A01 T10311077  RH  070%=      5-min Rain = 0
KHA3 141548Z 11006KT M03/M08 A3043 RMK A01 T10311078  RH  070%=      5-min Rain = 0
KHA3 141549Z 11007KT M03/M08 A3043 RMK A01 T10321076  RH  071%=      5-min Rain = 0
KHA3 141550Z 11008KT M03/M08 A3043 RMK A01 T10311075  RH  072%=      5-min Rain = 0
KHA3 141551Z 11007KT M03/M08 A3043 RMK A01 T10311076  RH  072%=      5-min Rain = 0
KHA3 141552Z 11006KT M03/M08 A3043 RMK A01 T10311076  RH  071%=      5-min Rain = 0
KHA3 141553Z 12007KT M03/M08 A3043 RMK A01 T10311076  RH  071%=      5-min Rain = 0
KHA3 141554Z 11005KT M03/M08 A3043 RMK A01 T10311076  RH  071%=      5-min Rain = 0
KHA3 141555Z 10005KT M03/M07 A3043 RMK A01 T10301074  RH  072%=      5-min Rain = 0
KHA3 141556Z 11005KT M03/M08 A3043 RMK A01 T10301075  RH  071%=      5-min Rain = 0
KHA3 141557Z 11005KT M03/M07 A3043 RMK A01 T10291074  RH  071%=      5-min Rain = 0
KHA3 141558Z 10005KT M03/M08 A3043 RMK A01 T10301075  RH  071%=      5-min Rain = 0
KHA3 141559Z 10005KT M03/M08 A3043 RMK A01 T10301075  RH  071%=      5-min Rain = 0
KHA3 141600Z 12005KT M03/M08 A3043 RMK A01 T10291075  RH  071%=      5-min Rain = 0
KHA3 141601Z 12003KT M03/M07 A3043 RMK A01 T10281072  RH  072%=      5-min Rain = 0
KHA3 141602Z 11005KT M03/M07 A3043 RMK A01 T10281074  RH  071%=      5-min Rain = 0
KHA3 141603Z 11006KT M03/M07 A3043 RMK A01 T10281074  RH  071%=      5-min Rain = 0
KHA3 141604Z 11005KT M03/M07 A3043 RMK A01 T10281073  RH  071%=      5-min Rain = 0
KHA3 141605Z 11004KT M03/M07 A3043 RMK A01 T10281074  RH  071%=      5-min Rain = 0
KHA3 141606Z 11004KT M03/M08 A3043 RMK A01 T10281075  RH  070%=      5-min Rain = 0
KHA3 141607Z 12004KT M03/M07 A3043 RMK A01 T10281073  RH  071%=      5-min Rain = 0
KHA3 141608Z 13006KT M03/M07 A3043 RMK A01 T10261069  RH  072%=      5-min Rain = 0
KHA3 141609Z 11006KT M03/M07 A3043 RMK A01 T10251070  RH  071%=      5-min Rain = 0
KHA3 141610Z 11005KT M03/M07 A3043 RMK A01 T10251072  RH  070%=      5-min Rain = 0
KHA3 141611Z 10006KT M03/M07 A3043 RMK A01 T10251073  RH  070%=      5-min Rain = 0
KHA3 141612Z 11005KT M03/M07 A3043 RMK A01 T10251073  RH  070%=      5-min Rain = 0
KHA3 141613Z 11005KT M03/M07 A3043 RMK A01 T10251073  RH  069%=      5-min Rain = 0
KHA3 141614Z 14005KT M02/M07 A3043 RMK A01 T10241073  RH  069%=      5-min Rain = 0
KHA3 141615Z 15006KT M02/M07 A3043 RMK A01 T10241072  RH  070%=      5-min Rain = 0
KHA3 141616Z 13005KT M02/M07 A3043 RMK A01 T10221069  RH  071%=      5-min Rain = 0
KHA3 141617Z 14005KT M02/M07 A3043 RMK A01 T10211070  RH  069%=      5-min Rain = 0
KHA3 141618Z 14006KT M02/M07 A3043 RMK A01 T10211071  RH  069%=      5-min Rain = 0
KHA3 141619Z 13006KT M02/M07 A3043 RMK A01 T10201071  RH  068%=      5-min Rain = 0
KHA3 141620Z 14006KT M02/M07 A3043 RMK A01 T10201071  RH  068%=      5-min Rain = 0
KHA3 141621Z 13005KT M02/M07 A3043 RMK A01 T10191072  RH  067%=      5-min Rain = 0
KHA3 141622Z 13005KT M02/M07 A3042 RMK A01 T10201074  RH  067%=      5-min Rain = 0
KHA3 141623Z 13005KT M02/M07 A3042 RMK A01 T10211073  RH  067%=      5-min Rain = 0
KHA3 141624Z 13004KT M02/M07 A3042 RMK A01 T10201070  RH  069%=      5-min Rain = 0
KHA3 141625Z 14004KT M02/M07 A3042 RMK A01 T10181068  RH  069%=      5-min Rain = 0
KHA3 141626Z 14004KT M02/M07 A3042 RMK A01 T10171069  RH  067%=      5-min Rain = 0
KHA3 141627Z 16005KT M02/M07 A3042 RMK A01 T10161067  RH  068%=      5-min Rain = 0
KHA3 141628Z 12005KT M02/M07 A3042 RMK A01 T10151067  RH  068%=      5-min Rain = 0
KHA3 141629Z 13005KT M01/M07 A3042 RMK A01 T10141067  RH  068%=      5-min Rain = 0
KHA3 141630Z 15006KT M01/M07 A3042 RMK A01 T10141068  RH  067%=      5-min Rain = 0
KHA3 141631Z 14006KT M02/M07 A3042 RMK A01 T10151070  RH  066%=      5-min Rain = 0
KHA3 141632Z 14006KT M02/M07 A3042 RMK A01 T10161070  RH  066%=      5-min Rain = 0
KHA3 141633Z 15006KT M02/M07 A3042 RMK A01 T10161071  RH  066%=      5-min Rain = 0
KHA3 141634Z 14004KT M02/M07 A3042 RMK A01 T10161069  RH  067%=      5-min Rain = 0
KHA3 141635Z 15003KT M01/M07 A3042 RMK A01 T10141067  RH  067%=      5-min Rain = 0
KHA3 141636Z 13006KT M01/M06 A3042 RMK A01 T10121064  RH  067%=      5-min Rain = 0
KHA3 141637Z 12004KT M01/M06 A3042 RMK A01 T10091064  RH  067%=      5-min Rain = 0
KHA3 141638Z 13005KT M01/M07 A3042 RMK A01 T10091066  RH  065%=      5-min Rain = 0
KHA3 141639Z 12005KT M01/M07 A3042 RMK A01 T10091067  RH  065%=      5-min Rain = 0
KHA3 141640Z 12006KT M01/M07 A3042 RMK A01 T10101067  RH  065%=      5-min Rain = 0
KHA3 141641Z 15006KT M01/M07 A3042 RMK A01 T10101067  RH  065%=      5-min Rain = 0
KHA3 141642Z 14006KT M01/M07 A3042 RMK A01 T10101067  RH  065%=      5-min Rain = 0
KHA3 141643Z 14006KT M01/M07 A3042 RMK A01 T10091065  RH  066%=      5-min Rain = 0
KHA3 141644Z 13004KT M01/M07 A3042 RMK A01 T10081066  RH  065%=      5-min Rain = 0
KHA3 141645Z 15005KT M01/M07 A3042 RMK A01 T10081067  RH  065%=      5-min Rain = 0
KHA3 141646Z 16005KT M01/M07 A3042 RMK A01 T10091068  RH  064%=      5-min Rain = 0
KHA3 141647Z 16003KT M01/M06 A3042 RMK A01 T10081064  RH  066%=      5-min Rain = 0
KHA3 141648Z 16006KT M01/M06 A3042 RMK A01 T10061063  RH  065%=      5-min Rain = 0
KHA3 141649Z 18006KT M01/M06 A3042 RMK A01 T10051064  RH  065%=      5-min Rain = 0
KHA3 141650Z 18004KT M01/M07 A3042 RMK A01 T10061066  RH  064%=      5-min Rain = 0
KHA3 141651Z 15004KT M01/M07 A3042 RMK A01 T10081067  RH  064%=      5-min Rain = 0
KHA3 141652Z 14005KT M01/M06 A3042 RMK A01 T10071062  RH  066%=      5-min Rain = 0
KHA3 141653Z 13005KT M00/M06 A3042 RMK A01 T10041060  RH  066%=      5-min Rain = 0
KHA3 141654Z 14005KT M00/M06 A3042 RMK A01 T10031064  RH  064%=      5-min Rain = 0
KHA3 141655Z 17004KT M01/M07 A3042 RMK A01 T10051065  RH  064%=      5-min Rain = 0
KHA3 141656Z 14005KT M00/M06 A3042 RMK A01 T10041063  RH  064%=      5-min Rain = 0
KHA3 141657Z 13005KT M00/M06 A3042 RMK A01 T10031063  RH  064%=      5-min Rain = 0
KHA3 141658Z 15005KT M00/M06 A3042 RMK A01 T10021060  RH  065%=      5-min Rain = 0
KHA3 141659Z 15005KT 00/06 A3042 RMK A01 T00000-61  RH  064%=      5-min Rain = 0
KHA3 141700Z 18004KT M00/M06 A3042 RMK A01 T10011064  RH  062%=      5-min Rain = 0
KHA3 141701Z 16006KT M00/M06 A3042 RMK A01 T10021063  RH  063%=      5-min Rain = 0
KHA3 141702Z 15007KT 00/06 A3042 RMK A01 T00-00-59  RH  065%=      5-min Rain = 0
KHA3 141703Z 15008KT 00/M06 A3042 RMK A01 T00011059  RH  064%=      5-min Rain = 0
KHA3 141704Z 16008KT 00/M06 A3042 RMK A01 T00021059  RH  063%=      5-min Rain = 0
KHA3 141705Z 16009KT 00/M06 A3042 RMK A01 T00011061  RH  063%=      5-min Rain = 0
KHA3 141706Z 15008KT 00/06 A3042 RMK A01 T00000-61  RH  064%=      5-min Rain = 0
KHA3 141707Z 15008KT 00/06 A3042 RMK A01 T00-00-61  RH  063%=      5-min Rain = 0
KHA3 141708Z 16008KT 00/06 A3042 RMK A01 T00-00-61  RH  064%=      5-min Rain = 0
KHA3 141709Z 18007KT 00/M06 A3042 RMK A01 T00011059  RH  064%=      5-min Rain = 0
KHA3 141710Z 18007KT 00/M06 A3042 RMK A01 T00011059  RH  064%=      5-min Rain = 0
KHA3 141711Z 19008KT 00/M06 A3041 RMK A01 T00011058  RH  064%=      5-min Rain = 0
KHA3 141712Z 18007KT 00/M06 A3041 RMK A01 T00021057  RH  064%=      5-min Rain = 0
KHA3 141713Z 17007KT 00/M06 A3041 RMK A01 T00021058  RH  064%=      5-min Rain = 0
KHA3 141714Z 16008KT 00/M06 A3041 RMK A01 T00031057  RH  064%=      5-min Rain = 0
KHA3 141715Z 17007KT 00/M06 A3041 RMK A01 T00031057  RH  064%=      5-min Rain = 0
KHA3 141716Z 18009KT 00/M05 A3041 RMK A01 T00041054  RH  065%=      5-min Rain = 0
KHA3 141717Z 17009KT 00/M05 A3041 RMK A01 T00041052  RH  066%=      5-min Rain = 0
KHA3 141718Z 18007KT 00/M05 A3041 RMK A01 T00041054  RH  065%=      5-min Rain = 0
KHA3 141719Z 19007KT 00/M05 A3041 RMK A01 T00041052  RH  066%=      5-min Rain = 0
KHA3 141720Z 21007KT 01/M05 A3041 RMK A01 T00081046  RH  067%=      5-min Rain = 0
KHA3 141721Z 21006KT 01/M05 A3041 RMK A01 T00101049  RH  065%=      5-min Rain = 0
KHA3 141722Z 21009KT 01/M05 A3041 RMK A01 T00111047  RH  065%=      5-min Rain = 0
KHA3 141723Z 18010KT 01/M04 A3041 RMK A01 T00141044  RH  065%=      5-min Rain = 0
KHA3 141724Z 19011KT 02/M04 A3041 RMK A01 T00151044  RH  065%=      5-min Rain = 0
KHA3 141725Z 20009KT 02/M04 A3041 RMK A01 T00151044  RH  065%=      5-min Rain = 0
KHA3 141726Z 19008KT 01/M04 A3041 RMK A01 T00141044  RH  065%=      5-min Rain = 0
KHA3 141727Z 20009KT 02/M04 A3041 RMK A01 T00151042  RH  066%=      5-min Rain = 0
KHA3 141728Z 20007KT 01/M05 A3041 RMK A01 T00141048  RH  063%=      5-min Rain = 0
KHA3 141729Z 19006KT 01/M05 A3041 RMK A01 T00121048  RH  064%=      5-min Rain = 0
KHA3 141730Z 20006KT 01/M05 A3041 RMK A01 T00131046  RH  065%=      5-min Rain = 0
KHA3 141731Z 18010KT 02/M04 A3041 RMK A01 T00161042  RH  065%=      5-min Rain = 0
KHA3 141732Z 19008KT 02/M05 A304 RMK A01 T00181047  RH  062%=      5-min Rain = 0
KHA3 141733Z 18007KT 01/M05 A304 RMK A01 T00131049  RH  063%=      5-min Rain = 0
KHA3 141734Z 21010KT 01/M05 A304 RMK A01 T00121046  RH  065%=      5-min Rain = 0
KHA3 141735Z 19007KT 01/M05 A304 RMK A01 T00131046  RH  065%=      5-min Rain = 0
KHA3 141736Z 20004KT 01/M05 A304 RMK A01 T00111049  RH  064%=      5-min Rain = 0
KHA3 141737Z 19006G11KT 01/M05 A304 RMK A01 T00111047  RH  065%=      5-min Rain = 0
KHA3 141738Z 17010KT 02/M04 A304 RMK A01 T00151043  RH  066%=      5-min Rain = 0
KHA3 141739Z 20012KT 02/M04 A304 RMK A01 T00171043  RH  064%=      5-min Rain = 0
KHA3 141740Z 22010KT 02/M04 A304 RMK A01 T00181042  RH  064%=      5-min Rain = 0
KHA3 141741Z 22011KT 02/M04 A304 RMK A01 T00171042  RH  065%=      5-min Rain = 0
KHA3 141742Z 21010KT 02/M04 A304 RMK A01 T00171042  RH  065%=      5-min Rain = 0
KHA3 141743Z 20011KT 02/M04 A304 RMK A01 T00161040  RH  066%=      5-min Rain = 0
KHA3 141744Z 21009KT 02/M04 A304 RMK A01 T00191040  RH  065%=      5-min Rain = 0
KHA3 141745Z 21011KT 02/M04 A304 RMK A01 T00211036  RH  066%=      5-min Rain = 0
KHA3 141746Z 21009KT 02/M04 A304 RMK A01 T00201039  RH  065%=      5-min Rain = 0
KHA3 141747Z 21007KT 02/M04 A304 RMK A01 T00191038  RH  066%=      5-min Rain = 0
KHA3 141748Z 20005KT 02/M04 A304 RMK A01 T00191038  RH  066%=      5-min Rain = 0
KHA3 141749Z 22005KT 02/M04 A304 RMK A01 T00191039  RH  065%=      5-min Rain = 0
KHA3 141750Z 23009KT 02/M04 A304 RMK A01 T00191037  RH  066%=      5-min Rain = 0
KHA3 141751Z 22010KT 02/M04 A304 RMK A01 T00201036  RH  066%=      5-min Rain = 0
KHA3 141752Z 19007KT 02/M04 A304 RMK A01 T00191037  RH  066%=      5-min Rain = 0
KHA3 141753Z 18008KT 02/M04 A304 RMK A01 T00211038  RH  065%=      5-min Rain = 0
KHA3 141754Z 17006KT 02/M04 A304 RMK A01 T00221041  RH  063%=      5-min Rain = 0
KHA3 141755Z 17004KT 02/M04 A304 RMK A01 T00211043  RH  063%=      5-min Rain = 0
KHA3 141756Z 18009KT 02/M04 A3039 RMK A01 T00221039  RH  064%=      5-min Rain = 0
KHA3 141757Z 18007KT 02/M04 A3039 RMK A01 T00221041  RH  063%=      5-min Rain = 0
KHA3 141758Z 19006KT 02/M04 A3039 RMK A01 T00221041  RH  063%=      5-min Rain = 0
KHA3 141759Z 17005KT 02/M04 A3039 RMK A01 T00221040  RH  064%=      5-min Rain = 0
KHA3 141800Z 20008KT 02/M04 A3039 RMK A01 T00241037  RH  064%=      5-min Rain = 0
KHA3 141801Z 21009KT 03/M04 A3039 RMK A01 T00261038  RH  063%=      5-min Rain = 0
KHA3 141802Z 22010KT 02/M04 A3039 RMK A01 T00241040  RH  063%=      5-min Rain = 0
KHA3 141803Z 19007KT 02/M04 A3039 RMK A01 T00221039  RH  064%=      5-min Rain = 0
KHA3 141804Z 19006KT 03/M03 A3039 RMK A01 T00261033  RH  065%=      5-min Rain = 0
KHA3 141805Z 21006G11KT 03/M04 A3039 RMK A01 T00281037  RH  062%=      5-min Rain = 0
KHA3 141806Z 21009KT 03/M04 A3039 RMK A01 T00281036  RH  063%=      5-min Rain = 0
KHA3 141807Z 22009KT 03/M03 A3038 RMK A01 T00301034  RH  063%=      5-min Rain = 0
KHA3 141808Z 20007KT 03/M04 A3038 RMK A01 T00281038  RH  062%=      5-min Rain = 0
KHA3 141809Z 20009KT 03/M03 A3038 RMK A01 T00301033  RH  063%=      5-min Rain = 0
KHA3 141810Z 16008KT 03/M03 A3038 RMK A01 T00341033  RH  062%=      5-min Rain = 0
KHA3 141811Z 17006KT 03/M04 A3038 RMK A01 T00341039  RH  059%=      5-min Rain = 0
KHA3 141812Z 21004KT 03/M04 A3038 RMK A01 T00331038  RH  060%=      5-min Rain = 0
KHA3 141813Z 21006KT 03/M04 A3038 RMK A01 T00331036  RH  061%=      5-min Rain = 0
KHA3 141814Z 18010KT 04/M03 A3038 RMK A01 T00351034  RH  061%=      5-min Rain = 0
KHA3 141815Z 18010KT 03/M04 A3038 RMK A01 T00341038  RH  059%=      5-min Rain = 0
KHA3 141816Z 20010KT 03/M04 A3037 RMK A01 T00341037  RH  060%=      5-min Rain = 0
KHA3 141817Z 20010KT 03/M04 A3037 RMK A01 T00341036  RH  060%=      5-min Rain = 0
KHA3 141818Z 18009KT 03/M04 A3037 RMK A01 T00331037  RH  060%=      5-min Rain = 0
KHA3 141819Z 19009KT 03/M04 A3037 RMK A01 T00331038  RH  060%=      5-min Rain = 0
KHA3 141820Z 20008KT 03/M04 A3037 RMK A01 T00331037  RH  060%=      5-min Rain = 0
KHA3 141821Z 20011KT 04/M04 A3037 RMK A01 T00351035  RH  060%=      5-min Rain = 0
KHA3 141822Z 21011KT 04/M04 A3037 RMK A01 T00361038  RH  059%=      5-min Rain = 0
KHA3 141823Z 21007KT 03/M04 A3036 RMK A01 T00341038  RH  059%=      5-min Rain = 0
KHA3 141824Z 19009KT 04/M04 A3036 RMK A01 T00361035  RH  060%=      5-min Rain = 0
KHA3 141825Z 22008KT 04/M04 A3036 RMK A01 T00371036  RH  059%=      5-min Rain = 0
KHA3 141826Z 19014KT 04/M03 A3036 RMK A01 T00391033  RH  060%=      5-min Rain = 0
KHA3 141827Z 19012KT 04/M03 A3036 RMK A01 T00411032  RH  059%=      5-min Rain = 0
KHA3 141828Z 20009KT 04/M03 A3036 RMK A01 T00411034  RH  058%=      5-min Rain = 0
KHA3 141829Z 21009KT 04/M03 A3036 RMK A01 T00401032  RH  059%=      5-min Rain = 0
KHA3 141830Z 19007KT 04/M03 A3036 RMK A01 T00411032  RH  059%=      5-min Rain = 0
KHA3 141831Z 19006KT 04/M03 A3036 RMK A01 T00411033  RH  058%=      5-min Rain = 0
KHA3 141832Z 18006KT 04/M04 A3036 RMK A01 T00401036  RH  058%=      5-min Rain = 0
KHA3 141833Z 18006KT 04/M04 A3036 RMK A01 T00391037  RH  058%=      5-min Rain = 0
KHA3 141834Z 18008KT 04/M04 A3036 RMK A01 T00401036  RH  058%=      5-min Rain = 0
KHA3 141835Z 18009KT 04/M03 A3036 RMK A01 T00431033  RH  058%=      5-min Rain = 0
KHA3 141836Z 18009KT 04/M03 A3035 RMK A01 T00431033  RH  058%=      5-min Rain = 0
KHA3 141837Z 17013KT 05/M03 A3035 RMK A01 T00451032  RH  057%=      5-min Rain = 0
KHA3 141838Z 18011KT 05/M03 A3035 RMK A01 T00461034  RH  056%=      5-min Rain = 0
KHA3 141839Z 17007KT 05/M03 A3035 RMK A01 T00451034  RH  056%=      5-min Rain = 0
KHA3 141840Z 18006KT 04/M04 A3035 RMK A01 T00431036  RH  056%=      5-min Rain = 0
KHA3 141841Z 19004KT 04/M04 A3035 RMK A01 T00411038  RH  056%=      5-min Rain = 0
KHA3 141842Z 18008KT 04/M04 A3035 RMK A01 T00391036  RH  058%=      5-min Rain = 0
KHA3 141843Z 19008KT 04/M03 A3035 RMK A01 T00441030  RH  059%=      5-min Rain = 0
KHA3 141844Z 15009KT 05/M03 A3035 RMK A01 T00451030  RH  058%=      5-min Rain = 0
KHA3 141845Z 16009KT 05/M03 A3035 RMK A01 T00481032  RH  057%=      5-min Rain = 0
KHA3 141846Z 19011KT 05/M03 A3035 RMK A01 T00481032  RH  056%=      5-min Rain = 0
KHA3 141847Z 19010KT 05/M04 A3035 RMK A01 T00451036  RH  056%=      5-min Rain = 0
KHA3 141848Z 19012KT 05/M03 A3034 RMK A01 T00451033  RH  057%=      5-min Rain = 0
KHA3 141849Z 18011KT 05/M03 A3034 RMK A01 T00471033  RH  056%=      5-min Rain = 0
KHA3 141850Z 20010KT 05/M03 A3034 RMK A01 T00461034  RH  056%=      5-min Rain = 0
KHA3 141851Z 18010KT 05/M03 A3034 RMK A01 T00461034  RH  056%=      5-min Rain = 0
KHA3 141852Z 17012KT 05/M03 A3034 RMK A01 T00451034  RH  056%=      5-min Rain = 0
KHA3 141853Z 17009KT 05/M03 A3034 RMK A01 T00471034  RH  056%=      5-min Rain = 0
KHA3 141854Z 18012KT 05/M03 A3034 RMK A01 T00481031  RH  056%=      5-min Rain = 0
KHA3 141855Z 19008KT 05/M03 A3034 RMK A01 T00471033  RH  056%=      5-min Rain = 0
KHA3 141856Z 20009KT 05/M03 A3034 RMK A01 T00461031  RH  057%=      5-min Rain = 0
KHA3 141857Z 21008KT 05/M03 A3034 RMK A01 T00461034  RH  056%=      5-min Rain = 0
KHA3 141858Z 21010KT 04/M03 A3034 RMK A01 T00441034  RH  057%=      5-min Rain = 0
KHA3 141859Z 20005KT 04/M04 A3034 RMK A01 T00421038  RH  056%=      5-min Rain = 0
KHA3 141900Z 20007KT 04/M04 A3034 RMK A01 T00411035  RH  058%=      5-min Rain = 0
KHA3 141901Z 17011KT 05/M03 A3034 RMK A01 T00451032  RH  057%=      5-min Rain = 0
KHA3 141902Z 16009KT 05/M03 A3034 RMK A01 T00491032  RH  056%=      5-min Rain = 0
KHA3 141903Z 18009KT 05/M03 A3034 RMK A01 T00501033  RH  055%=      5-min Rain = 0
KHA3 141904Z 19009KT 05/M03 A3034 RMK A01 T00501033  RH  055%=      5-min Rain = 0
KHA3 141905Z 18010KT 05/M03 A3034 RMK A01 T00481034  RH  055%=      5-min Rain = 0
KHA3 141906Z 18010KT 05/M03 A3034 RMK A01 T00501034  RH  055%=      5-min Rain = 0
KHA3 141907Z 20009KT 05/M03 A3034 RMK A01 T00491034  RH  055%=      5-min Rain = 0
KHA3 141908Z 18008KT 05/M03 A3034 RMK A01 T00491034  RH  055%=      5-min Rain = 0
KHA3 141909Z 16007KT 05/M03 A3034 RMK A01 T00491034  RH  055%=      5-min Rain = 0
KHA3 141910Z 15010KT 05/M03 A3033 RMK A01 T00531032  RH  054%=      5-min Rain = 0
KHA3 141911Z 17008KT 06/M03 A3033 RMK A01 T00551030  RH  054%=      5-min Rain = 0
KHA3 141912Z 17007KT 06/M03 A3033 RMK A01 T00591028  RH  054%=      5-min Rain = 0
KHA3 141913Z 17008KT 06/M03 A3033 RMK A01 T00591029  RH  053%=      5-min Rain = 0
KHA3 141914Z 14007KT 06/M03 A3033 RMK A01 T00601029  RH  053%=      5-min Rain = 0
KHA3 141915Z 13007KT 06/M03 A3033 RMK A01 T00611031  RH  052%=      5-min Rain = 0
KHA3 141916Z 15004KT 06/M04 A3033 RMK A01 T00571035  RH  052%=      5-min Rain = 0
KHA3 141917Z 16003KT 05/M03 A3033 RMK A01 T00541033  RH  053%=      5-min Rain = 0
KHA3 141918Z 18010KT 06/M03 A3033 RMK A01 T00561031  RH  053%=      5-min Rain = 0
KHA3 141919Z 18011KT 06/M03 A3032 RMK A01 T00581033  RH  052%=      5-min Rain = 0
KHA3 141920Z 18009KT 06/M04 A3032 RMK A01 T00561036  RH  051%=      5-min Rain = 0
KHA3 141921Z 18011KT 05/M04 A3032 RMK A01 T00521037  RH  053%=      5-min Rain = 0
KHA3 141922Z 18007KT 05/M03 A3032 RMK A01 T00511034  RH  054%=      5-min Rain = 0
KHA3 141923Z 18006KT 05/M04 A3032 RMK A01 T00521035  RH  053%=      5-min Rain = 0
KHA3 141924Z 19007KT 05/M03 A3032 RMK A01 T00541032  RH  054%=      5-min Rain = 0
KHA3 141925Z 19009KT 06/M03 A3032 RMK A01 T00551032  RH  053%=      5-min Rain = 0
KHA3 141926Z 18008KT 06/M03 A3032 RMK A01 T00561031  RH  054%=      5-min Rain = 0
KHA3 141927Z 20006KT 06/M03 A3032 RMK A01 T00561032  RH  053%=      5-min Rain = 0
KHA3 141928Z 21005KT 06/M03 A3032 RMK A01 T00571031  RH  053%=      5-min Rain = 0
KHA3 141929Z 22004KT 06/M03 A3031 RMK A01 T00551033  RH  053%=      5-min Rain = 0
KHA3 141930Z 19006KT 05/M03 A3031 RMK A01 T00541033  RH  053%=      5-min Rain = 0
KHA3 141931Z 19010KT 06/M03 A3031 RMK A01 T00551032  RH  054%=      5-min Rain = 0
KHA3 141932Z 20007KT 06/M03 A3031 RMK A01 T00551034  RH  053%=      5-min Rain = 0
KHA3 141933Z 18005KT 05/M04 A3031 RMK A01 T00531036  RH  052%=      5-min Rain = 0
KHA3 141934Z 16007KT 05/M03 A3031 RMK A01 T00541033  RH  053%=      5-min Rain = 0
KHA3 141935Z 14008KT 06/M03 A3031 RMK A01 T00561034  RH  052%=      5-min Rain = 0
KHA3 141936Z 15007KT 06/M04 A3031 RMK A01 T00561035  RH  052%=      5-min Rain = 0
KHA3 141937Z 20007KT 06/M03 A3031 RMK A01 T00581031  RH  053%=      5-min Rain = 0
KHA3 141938Z 19007KT 06/M03 A3031 RMK A01 T00591033  RH  052%=      5-min Rain = 0
KHA3 141939Z 19009KT 06/M03 A3031 RMK A01 T00601029  RH  053%=      5-min Rain = 0
KHA3 141940Z 17010KT 06/M03 A303 RMK A01 T00621030  RH  052%=      5-min Rain = 0
KHA3 141941Z 16008KT 06/M03 A303 RMK A01 T00611032  RH  051%=      5-min Rain = 0
KHA3 141942Z 15008KT 06/M03 A303 RMK A01 T00631032  RH  051%=      5-min Rain = 0
KHA3 141943Z 17008KT 06/M03 A303 RMK A01 T00631031  RH  051%=      5-min Rain = 0
KHA3 141944Z 17009KT 07/M03 A303 RMK A01 T00651029  RH  051%=      5-min Rain = 0
KHA3 141945Z 19007KT 07/M03 A303 RMK A01 T00661030  RH  050%=      5-min Rain = 0
KHA3 141946Z 19006KT 07/M03 A303 RMK A01 T00651029  RH  051%=      5-min Rain = 0
KHA3 141947Z 18005KT 06/M03 A303 RMK A01 T00621034  RH  050%=      5-min Rain = 0
KHA3 141948Z 17006KT 06/M03 A303 RMK A01 T00601034  RH  051%=      5-min Rain = 0
KHA3 141949Z 17008KT 06/M03 A303 RMK A01 T00611032  RH  051%=      5-min Rain = 0
KHA3 141950Z 18011KT 06/M03 A303 RMK A01 T00631030  RH  051%=      5-min Rain = 0
KHA3 141951Z 19007KT 07/M03 A303 RMK A01 T00651032  RH  050%=      5-min Rain = 0
KHA3 141952Z 16005KT 06/M03 A303 RMK A01 T00621033  RH  051%=      5-min Rain = 0
KHA3 141953Z 16005KT 06/M03 A303 RMK A01 T00621032  RH  051%=      5-min Rain = 0
KHA3 141954Z 18006KT 06/M03 A303 RMK A01 T00631033  RH  050%=      5-min Rain = 0
KHA3 141955Z 17011G16KT 06/M03 A303 RMK A01 T00641031  RH  051%=      5-min Rain = 0
KHA3 141956Z 17012KT 07/M03 A303 RMK A01 T00671029  RH  050%=      5-min Rain = 0
KHA3 141957Z 16012KT 07/M03 A303 RMK A01 T00671031  RH  050%=      5-min Rain = 0
KHA3 141958Z 16009KT 06/M03 A303 RMK A01 T00641034  RH  050%=      5-min Rain = 0
KHA3 141959Z 16011KT 06/M03 A3029 RMK A01 T00641031  RH  050%=      5-min Rain = 0
KHA3 142000Z 18009KT 07/M03 A303 RMK A01 T00681028  RH  051%=      5-min Rain = 0
KHA3 142001Z 16008KT 07/M03 A3029 RMK A01 T00661033  RH  049%=      5-min Rain = 0
KHA3 142002Z 16010KT 07/M03 A3029 RMK A01 T00681027  RH  051%=      5-min Rain = 0
KHA3 142003Z 16008KT 07/M03 A3029 RMK A01 T00711030  RH  049%=      5-min Rain = 0
KHA3 142004Z 15010KT 07/M03 A3029 RMK A01 T00701028  RH  050%=      5-min Rain = 0
KHA3 142005Z 15010KT 07/M03 A3029 RMK A01 T00721029  RH  049%=      5-min Rain = 0
KHA3 142006Z 19011KT 07/M03 A3029 RMK A01 T00691031  RH  049%=      5-min Rain = 0
KHA3 142007Z 21009KT 07/M03 A3029 RMK A01 T00691028  RH  050%=      5-min Rain = 0
KHA3 142008Z 20009KT 07/M03 A3029 RMK A01 T00701025  RH  051%=      5-min Rain = 0
KHA3 142009Z 19007KT 07/M03 A3029 RMK A01 T00711028  RH  049%=      5-min Rain = 0
KHA3 142010Z 20010KT 07/M03 A3028 RMK A01 T00721025  RH  050%=      5-min Rain = 0
KHA3 142011Z 20009KT 07/M03 A3028 RMK A01 T00721026  RH  050%=      5-min Rain = 0
KHA3 142012Z 16010G15KT 07/M02 A3029 RMK A01 T00741024  RH  050%=      5-min Rain = 0
KHA3 142013Z 14013KT 08/M03 A3028 RMK A01 T00761026  RH  048%=      5-min Rain = 0
KHA3 142014Z 15012KT 07/M03 A3028 RMK A01 T00741031  RH  047%=      5-min Rain = 0
KHA3 142015Z 15008KT 07/M03 A3028 RMK A01 T00711030  RH  049%=      5-min Rain = 0
KHA3 142016Z 15009KT 07/M03 A3028 RMK A01 T00731027  RH  049%=      5-min Rain = 0
KHA3 142017Z 16010KT 08/M03 A3028 RMK A01 T00751026  RH  049%=      5-min Rain = 0
KHA3 142018Z 16012KT 08/M03 A3028 RMK A01 T00771027  RH  048%=      5-min Rain = 0
KHA3 142019Z 17010KT 07/M03 A3028 RMK A01 T00741030  RH  048%=      5-min Rain = 0
KHA3 142020Z 17008KT 07/M03 A3028 RMK A01 T00721030  RH  048%=      5-min Rain = 0
KHA3 142021Z 18011KT 07/M03 A3028 RMK A01 T00731026  RH  049%=      5-min Rain = 0
KHA3 142022Z 17012KT 07/M03 A3028 RMK A01 T00741026  RH  049%=      5-min Rain = 0
KHA3 142023Z 17010KT 08/M03 A3028 RMK A01 T00761025  RH  049%=      5-min Rain = 0
KHA3 142024Z 17006KT 08/M03 A3028 RMK A01 T00771027  RH  048%=      5-min Rain = 0
KHA3 142025Z 19009KT 08/M03 A3028 RMK A01 T00761025  RH  049%=      5-min Rain = 0
KHA3 142026Z 19012KT 08/M02 A3028 RMK A01 T00761024  RH  049%=      5-min Rain = 0
KHA3 142027Z 19008KT 08/M03 A3028 RMK A01 T00751027  RH  048%=      5-min Rain = 0
KHA3 142028Z 20007KT 07/M03 A3028 RMK A01 T00731025  RH  050%=      5-min Rain = 0
KHA3 142029Z 19007KT 08/M02 A3028 RMK A01 T00761023  RH  050%=      5-min Rain = 0
KHA3 142030Z 17008KT 08/M02 A3027 RMK A01 T00781021  RH  050%=      5-min Rain = 0
KHA3 142031Z 16010KT 08/M02 A3027 RMK A01 T00821021  RH  048%=      5-min Rain = 0
KHA3 142032Z 17007KT 08/M03 A3027 RMK A01 T00801028  RH  047%=      5-min Rain = 0
KHA3 142033Z 18006KT 08/M03 A3027 RMK A01 T00771026  RH  048%=      5-min Rain = 0
KHA3 142034Z 18011KT 07/M03 A3027 RMK A01 T00741029  RH  048%=      5-min Rain = 0
KHA3 142035Z 16012KT 07/M03 A3027 RMK A01 T00731027  RH  049%=      5-min Rain = 0
KHA3 142036Z 16009KT 07/M03 A3027 RMK A01 T00741027  RH  049%=      5-min Rain = 0
KHA3 142037Z 17009KT 08/M03 A3027 RMK A01 T00751026  RH  049%=      5-min Rain = 0
KHA3 142038Z 16008KT 08/M03 A3027 RMK A01 T00751026  RH  049%=      5-min Rain = 0
KHA3 142039Z 20009KT 08/M02 A3027 RMK A01 T00761024  RH  049%=      5-min Rain = 0
KHA3 142040Z 20010KT 08/M02 A3027 RMK A01 T00771024  RH  049%=      5-min Rain = 0
KHA3 142041Z 19007KT 08/M02 A3027 RMK A01 T00771023  RH  049%=      5-min Rain = 0
KHA3 142042Z 22007KT 08/M02 A3027 RMK A01 T00761024  RH  049%=      5-min Rain = 0
KHA3 142043Z 20009KT 08/M02 A3027 RMK A01 T00761022  RH  050%=      5-min Rain = 0
KHA3 142044Z 18010KT 08/M02 A3027 RMK A01 T00771022  RH  049%=      5-min Rain = 0
KHA3 142045Z 18011KT 08/M02 A3027 RMK A01 T00781021  RH  049%=      5-min Rain = 0
KHA3 142046Z 20009KT 08/M02 A3026 RMK A01 T00791020  RH  049%=      5-min Rain = 0
KHA3 142047Z 19012KT 08/M02 A3026 RMK A01 T00791022  RH  049%=      5-min Rain = 0
KHA3 142048Z 18011KT 08/M02 A3026 RMK A01 T00771024  RH  049%=      5-min Rain = 0
KHA3 142049Z 19009KT 07/M03 A3026 RMK A01 T00741026  RH  049%=      5-min Rain = 0
KHA3 142050Z 18010KT 07/M02 A3026 RMK A01 T00731023  RH  050%=      5-min Rain = 0
KHA3 142051Z 18012KT 08/M02 A3026 RMK A01 T00781018  RH  051%=      5-min Rain = 0
KHA3 142052Z 18010KT 08/M02 A3026 RMK A01 T00791019  RH  050%=      5-min Rain = 0
KHA3 142053Z 18008KT 08/M02 A3026 RMK A01 T00791020  RH  049%=      5-min Rain = 0
KHA3 142054Z 17010KT 08/M02 A3026 RMK A01 T00781022  RH  049%=      5-min Rain = 0
KHA3 142055Z 16012KT 08/M02 A3026 RMK A01 T00781021  RH  050%=      5-min Rain = 0
KHA3 142056Z 15009G14KT 08/M02 A3026 RMK A01 T00791020  RH  049%=      5-min Rain = 0
KHA3 142057Z 18011KT 08/M02 A3026 RMK A01 T00831015  RH  050%=      5-min Rain = 0
KHA3 142058Z 17011KT 09/M01 A3026 RMK A01 T00861014  RH  049%=      5-min Rain = 0
KHA3 142059Z 15011KT 09/M02 A3026 RMK A01 T00871017  RH  048%=      5-min Rain = 0
KHA3 142100Z 15012KT 09/M02 A3026 RMK A01 T00861018  RH  048%=      5-min Rain = 0
KHA3 142101Z 17012KT 09/M02 A3026 RMK A01 T00851018  RH  048%=      5-min Rain = 0
KHA3 142102Z 17014KT 09/M02 A3026 RMK A01 T00861017  RH  048%=      5-min Rain = 0
KHA3 142103Z 17012KT 08/M02 A3026 RMK A01 T00831021  RH  048%=      5-min Rain = 0
KHA3 142104Z 18010KT 08/M02 A3026 RMK A01 T00821019  RH  049%=      5-min Rain = 0
KHA3 142105Z 20011KT 08/M02 A3026 RMK A01 T00831018  RH  049%=      5-min Rain = 0
KHA3 142106Z 20008KT 08/M02 A3026 RMK A01 T00811019  RH  049%=      5-min Rain = 0
KHA3 142107Z 19009KT 08/M02 A3026 RMK A01 T00811018  RH  050%=      5-min Rain = 0
KHA3 142108Z 16008G13KT 08/M02 A3026 RMK A01 T00821017  RH  050%=      5-min Rain = 0
KHA3 142109Z 16010KT 09/M01 A3026 RMK A01 T00851014  RH  050%=      5-min Rain = 0
KHA3 142110Z 15011KT 09/M02 A3025 RMK A01 T00891015  RH  048%=      5-min Rain = 0
KHA3 142111Z 15014KT 09/M02 A3025 RMK A01 T00901015  RH  048%=      5-min Rain = 0
KHA3 142112Z 16013KT 09/M02 A3025 RMK A01 T00881017  RH  048%=      5-min Rain = 0
KHA3 142113Z 16011KT 09/M02 A3025 RMK A01 T00861017  RH  048%=      5-min Rain = 0
KHA3 142114Z 15010KT 09/M02 A3025 RMK A01 T00861017  RH  048%=      5-min Rain = 0
KHA3 142115Z 16010KT 08/M02 A3025 RMK A01 T00841018  RH  048%=      5-min Rain = 0
KHA3 142116Z 17013KT 09/M02 A3025 RMK A01 T00851017  RH  049%=      5-min Rain = 0
KHA3 142117Z 16010KT 09/M02 A3025 RMK A01 T00851017  RH  049%=      5-min Rain = 0
KHA3 142118Z 16013KT 09/M02 A3025 RMK A01 T00851017  RH  049%=      5-min Rain = 0
KHA3 142119Z 17013KT 09/M02 A3025 RMK A01 T00861015  RH  049%=      5-min Rain = 0
KHA3 142120Z 18015KT 09/M02 A3025 RMK A01 T00871016  RH  048%=      5-min Rain = 0
KHA3 142121Z 18014KT 09/M02 A3025 RMK A01 T00861017  RH  049%=      5-min Rain = 0
KHA3 142122Z 20012KT 09/M02 A3025 RMK A01 T00851016  RH  049%=      5-min Rain = 0
KHA3 142123Z 19010KT 09/M02 A3025 RMK A01 T00851015  RH  050%=      5-min Rain = 0
KHA3 142124Z 17012KT 09/M01 A3025 RMK A01 T00861012  RH  050%=      5-min Rain = 0
KHA3 142125Z 15011KT 09/M01 A3025 RMK A01 T00901013  RH  049%=      5-min Rain = 0
KHA3 142126Z 18013G18KT 09/M01 A3025 RMK A01 T00901012  RH  049%=      5-min Rain = 0
KHA3 142127Z 18016KT 09/M01 A3025 RMK A01 T00921010  RH  049%=      5-min Rain = 0
KHA3 142128Z 17017KT 09/M01 A3025 RMK A01 T00891014  RH  048%=      5-min Rain = 0
KHA3 142129Z 18014KT 09/M01 A3025 RMK A01 T00861014  RH  049%=      5-min Rain = 0
KHA3 142130Z 18013KT 09/M01 A3025 RMK A01 T00861013  RH  050%=      5-min Rain = 0
KHA3 142131Z 19010KT 09/M01 A3025 RMK A01 T00851014  RH  050%=      5-min Rain = 0
KHA3 142132Z 18011KT 08/M01 A3025 RMK A01 T00841013  RH  050%=      5-min Rain = 0
KHA3 142133Z 17012KT 09/M01 A3024 RMK A01 T00851012  RH  050%=      5-min Rain = 0
KHA3 142134Z 18015KT 09/M01 A3024 RMK A01 T00861012  RH  050%=      5-min Rain = 0
KHA3 142135Z 17014KT 09/M01 A3024 RMK A01 T00871010  RH  051%=      5-min Rain = 0
KHA3 142136Z 18014KT 09/M01 A3024 RMK A01 T00891010  RH  050%=      5-min Rain = 0
KHA3 142137Z 20015KT 09/M01 A3024 RMK A01 T00881010  RH  050%=      5-min Rain = 0
KHA3 142138Z 20015KT 09/M01 A3024 RMK A01 T00871011  RH  050%=      5-min Rain = 0
KHA3 142139Z 19013KT 08/M01 A3024 RMK A01 T00841011  RH  051%=      5-min Rain = 0
KHA3 142140Z 19012KT 09/M01 A3024 RMK A01 T00851010  RH  051%=      5-min Rain = 0
KHA3 142141Z 19012KT 09/M01 A3024 RMK A01 T00851010  RH  051%=      5-min Rain = 0
KHA3 142142Z 18011KT 09/M01 A3024 RMK A01 T00871008  RH  051%=      5-min Rain = 0
KHA3 142143Z 18013KT 09/M01 A3024 RMK A01 T00881010  RH  050%=      5-min Rain = 0
KHA3 142144Z 16011KT 09/M01 A3024 RMK A01 T00861010  RH  051%=      5-min Rain = 0
KHA3 142145Z 18010KT 09/M01 A3024 RMK A01 T00871011  RH  050%=      5-min Rain = 0
KHA3 142146Z 17012KT 09/M01 A3024 RMK A01 T00871009  RH  051%=      5-min Rain = 0
KHA3 142147Z 18014KT 09/M01 A3024 RMK A01 T00891010  RH  050%=      5-min Rain = 0
KHA3 142148Z 19015KT 09/M01 A3024 RMK A01 T00891008  RH  051%=      5-min Rain = 0
KHA3 142149Z 18012KT 09/M01 A3024 RMK A01 T00881010  RH  050%=      5-min Rain = 0
KHA3 142150Z 19012KT 09/M01 A3024 RMK A01 T00871010  RH  050%=      5-min Rain = 0
KHA3 142151Z 18010KT 09/M01 A3024 RMK A01 T00871008  RH  051%=      5-min Rain = 0
KHA3 142152Z 18009KT 09/M01 A3023 RMK A01 T00891010  RH  050%=      5-min Rain = 0
KHA3 142153Z 18012KT 09/M01 A3023 RMK A01 T00881011  RH  050%=      5-min Rain = 0
KHA3 142154Z 19013KT 09/M01 A3023 RMK A01 T00871010  RH  051%=      5-min Rain = 0
KHA3 142155Z 19013KT 09/M00 A3023 RMK A01 T00901004  RH  052%=      5-min Rain = 0
KHA3 142156Z 20014KT 09/M01 A3023 RMK A01 T00931005  RH  051%=      5-min Rain = 0
KHA3 142157Z 20015KT 09/M01 A3023 RMK A01 T00921005  RH  051%=      5-min Rain = 0
KHA3 142158Z 18013KT 09/M01 A3023 RMK A01 T00911006  RH  051%=      5-min Rain = 0
KHA3 142159Z 17013KT 09/M01 A3023 RMK A01 T00901008  RH  050%=      5-min Rain = 0
KHA3 142200Z 18011KT 09/M01 A3023 RMK A01 T00871012  RH  050%=      5-min Rain = 0
KHA3 142201Z 17013KT 09/M01 A3023 RMK A01 T00861008  RH  052%=      5-min Rain = 0
KHA3 142202Z 17013KT 09/M01 A3023 RMK A01 T00861010  RH  051%=      5-min Rain = 0
KHA3 142203Z 16013KT 09/M01 A3023 RMK A01 T00861009  RH  051%=      5-min Rain = 0
KHA3 142204Z 18013KT 09/M01 A3023 RMK A01 T00891005  RH  052%=      5-min Rain = 0
KHA3 142205Z 19015KT 09/M01 A3023 RMK A01 T00911006  RH  051%=      5-min Rain = 0
KHA3 142206Z 17014KT 09/M01 A3023 RMK A01 T00891007  RH  051%=      5-min Rain = 0
KHA3 142207Z 17015KT 09/M01 A3023 RMK A01 T00891009  RH  050%=      5-min Rain = 0
KHA3 142208Z 17012KT 09/M01 A3023 RMK A01 T00881010  RH  050%=      5-min Rain = 0
KHA3 142209Z 15011KT 09/M01 A3023 RMK A01 T00881009  RH  051%=      5-min Rain = 0
KHA3 142210Z 18008KT 09/M01 A3023 RMK A01 T00901006  RH  051%=      5-min Rain = 0
KHA3 142211Z 18011KT 09/M01 A3023 RMK A01 T00911006  RH  051%=      5-min Rain = 0
KHA3 142212Z 16014KT 09/M01 A3023 RMK A01 T00911007  RH  050%=      5-min Rain = 0
KHA3 142213Z 16013KT 09/M01 A3023 RMK A01 T00911007  RH  050%=      5-min Rain = 0
KHA3 142214Z 16012KT 09/M01 A3023 RMK A01 T00901009  RH  050%=      5-min Rain = 0
KHA3 142215Z 16014KT 09/M01 A3023 RMK A01 T00891009  RH  050%=      5-min Rain = 0
KHA3 142216Z 17016KT 09/M01 A3023 RMK A01 T00881009  RH  050%=      5-min Rain = 0
KHA3 142217Z 18014KT 09/M01 A3023 RMK A01 T00881009  RH  051%=      5-min Rain = 0
KHA3 142218Z 17013KT 09/M01 A3023 RMK A01 T00881008  RH  051%=      5-min Rain = 0
KHA3 142219Z 17012KT 09/M01 A3023 RMK A01 T00871010  RH  051%=      5-min Rain = 0
KHA3 142220Z 18014KT 09/M01 A3023 RMK A01 T00871009  RH  051%=      5-min Rain = 0
KHA3 142221Z 18013KT 09/M01 A3023 RMK A01 T00881007  RH  051%=      5-min Rain = 0
KHA3 142222Z 18012KT 09/M01 A3023 RMK A01 T00881007  RH  051%=      5-min Rain = 0
KHA3 142223Z 17013KT 09/M01 A3023 RMK A01 T00891008  RH  051%=      5-min Rain = 0
KHA3 142224Z 16014KT 09/M01 A3023 RMK A01 T00891008  RH  051%=      5-min Rain = 0
KHA3 142225Z 15013KT 09/M01 A3023 RMK A01 T00891009  RH  050%=      5-min Rain = 0
KHA3 142226Z 16011KT 09/M01 A3023 RMK A01 T00871010  RH  050%=      5-min Rain = 0
KHA3 142227Z 16012KT 09/M01 A3023 RMK A01 T00861009  RH  051%=      5-min Rain = 0
KHA3 142228Z 16012G17KT 09/M01 A3022 RMK A01 T00871009  RH  051%=      5-min Rain = 0
KHA3 142229Z 18014KT 09/M01 A3022 RMK A01 T00881007  RH  051%=      5-min Rain = 0
KHA3 142230Z 17015KT 09/M01 A3022 RMK A01 T00891007  RH  051%=      5-min Rain = 0
KHA3 142231Z 18014KT 09/M01 A3022 RMK A01 T00881007  RH  051%=      5-min Rain = 0
KHA3 142232Z 17014KT 09/M01 A3022 RMK A01 T00881007  RH  051%=      5-min Rain = 0
KHA3 142233Z 16012KT 09/M01 A3022 RMK A01 T00871008  RH  051%=      5-min Rain = 0
KHA3 142234Z 16010KT 09/M01 A3022 RMK A01 T00871008  RH  051%=      5-min Rain = 0
KHA3 142235Z 16012KT 09/M01 A3022 RMK A01 T00861008  RH  051%=      5-min Rain = 0
KHA3 142236Z 17012KT 09/M01 A3022 RMK A01 T00871007  RH  052%=      5-min Rain = 0
KHA3 142237Z 17015KT 09/M01 A3022 RMK A01 T00881007  RH  052%=      5-min Rain = 0
KHA3 142238Z 18014KT 09/M01 A3022 RMK A01 T00881005  RH  052%=      5-min Rain = 0
KHA3 142239Z 18013KT 09/M01 A3022 RMK A01 T00881006  RH  052%=      5-min Rain = 0
KHA3 142240Z 17013KT 09/M01 A3022 RMK A01 T00871006  RH  052%=      5-min Rain = 0
KHA3 142241Z 16014KT 09/M01 A3022 RMK A01 T00871008  RH  052%=      5-min Rain = 0
KHA3 142242Z 15014KT 09/M01 A3022 RMK A01 T00871007  RH  052%=      5-min Rain = 0
KHA3 142243Z 16016KT 09/M01 A3022 RMK A01 T00871007  RH  052%=      5-min Rain = 0
KHA3 142244Z 17013KT 09/M01 A3022 RMK A01 T00861008  RH  052%=      5-min Rain = 0
KHA3 142245Z 17011KT 09/M01 A3022 RMK A01 T00861007  RH  052%=      5-min Rain = 0
KHA3 142246Z 18010KT 09/M01 A3022 RMK A01 T00851008  RH  052%=      5-min Rain = 0
KHA3 142247Z 18014KT 09/M01 A3022 RMK A01 T00851008  RH  052%=      5-min Rain = 0
KHA3 142248Z 18014KT 09/M01 A3021 RMK A01 T00851006  RH  053%=      5-min Rain = 0
KHA3 142249Z 16013KT 09/M01 A3022 RMK A01 T00851006  RH  053%=      5-min Rain = 0
KHA3 142250Z 16011KT 09/M01 A3021 RMK A01 T00851006  RH  053%=      5-min Rain = 0
KHA3 142251Z 16012G17KT 09/M01 A3021 RMK A01 T00861006  RH  052%=      5-min Rain = 0
KHA3 142252Z 16015KT 09/M01 A3021 RMK A01 T00861007  RH  052%=      5-min Rain = 0
KHA3 142253Z 16015KT 09/M01 A3021 RMK A01 T00851007  RH  052%=      5-min Rain = 0
KHA3 142254Z 15014KT 09/M01 A3021 RMK A01 T00851006  RH  053%=      5-min Rain = 0
KHA3 142255Z 15013KT 09/M01 A3021 RMK A01 T00861006  RH  053%=      5-min Rain = 0
KHA3 142256Z 16012KT 09/M01 A3021 RMK A01 T00851006  RH  053%=      5-min Rain = 0
KHA3 142257Z 16011KT 09/M01 A3021 RMK A01 T00851006  RH  053%=      5-min Rain = 0
KHA3 142258Z 16012KT 09/M01 A3021 RMK A01 T00851005  RH  053%=      5-min Rain = 0
KHA3 142259Z 16013KT 09/M00 A3021 RMK A01 T00861003  RH  053%=      5-min Rain = 0
KHA3 142300Z 17014KT 09/M00 A3021 RMK A01 T00871003  RH  053%=      5-min Rain = 0
KHA3 142301Z 17012KT 09/M00 A3021 RMK A01 T00871003  RH  053%=      5-min Rain = 0
KHA3 142302Z 16015KT 09/M00 A3021 RMK A01 T00861003  RH  053%=      5-min Rain = 0
KHA3 142303Z 16015KT 09/M00 A3021 RMK A01 T00861004  RH  053%=      5-min Rain = 0
KHA3 142304Z 16014KT 09/M01 A3021 RMK A01 T00851005  RH  053%=      5-min Rain = 0
KHA3 142305Z 17011KT 09/M00 A3021 RMK A01 T00851004  RH  054%=      5-min Rain = 0
KHA3 142306Z 19010KT 09/M00 A3021 RMK A01 T00851002  RH  054%=      5-min Rain = 0
KHA3 142307Z 18010KT 09/M00 A3021 RMK A01 T00861001  RH  054%=      5-min Rain = 0
KHA3 142308Z 18009KT 09/M00 A3021 RMK A01 T00861002  RH  054%=      5-min Rain = 0
KHA3 142309Z 17014KT 09/M00 A3021 RMK A01 T00861002  RH  054%=      5-min Rain = 0
KHA3 142310Z 17015KT 09/M00 A3021 RMK A01 T00861003  RH  054%=      5-min Rain = 0
KHA3 142311Z 17013KT 09/M00 A3021 RMK A01 T00861003  RH  054%=      5-min Rain = 0
KHA3 142312Z 17014KT 09/M00 A3021 RMK A01 T00851003  RH  054%=      5-min Rain = 0
KHA3 142313Z 17012KT 09/M00 A3021 RMK A01 T00851003  RH  054%=      5-min Rain = 0
KHA3 142314Z 18013KT 09/M00 A3021 RMK A01 T00851002  RH  054%=      5-min Rain = 0
KHA3 142315Z 18014KT 09/M00 A3021 RMK A01 T00851002  RH  054%=      5-min Rain = 0
KHA3 142316Z 17014KT 09/M00 A3021 RMK A01 T00851001  RH  054%=      5-min Rain = 0
KHA3 142317Z 17015KT 09/M00 A3021 RMK A01 T00851002  RH  054%=      5-min Rain = 0
KHA3 142318Z 17014KT 09/M00 A3021 RMK A01 T00851002  RH  054%=      5-min Rain = 0
KHA3 142319Z 17015KT 09/M00 A3021 RMK A01 T00851002  RH  054%=      5-min Rain = 0
KHA3 142320Z 16014KT 08/M00 A3021 RMK A01 T00841002  RH  054%=      5-min Rain = 0
KHA3 142321Z 17013KT 09/M00 A3021 RMK A01 T00851002  RH  054%=      5-min Rain = 0
KHA3 142322Z 18013KT 09/M00 A3021 RMK A01 T00851002  RH  054%=      5-min Rain = 0
KHA3 142323Z 19012KT 09/M00 A3021 RMK A01 T00851001  RH  055%=      5-min Rain = 0
KHA3 142324Z 18012KT 09/M00 A3021 RMK A01 T00851001  RH  055%=      5-min Rain = 0
KHA3 142325Z 17013KT 09/M00 A3021 RMK A01 T00851001  RH  055%=      5-min Rain = 0
KHA3 142326Z 17013KT 09/M00 A3021 RMK A01 T00851002  RH  054%=      5-min Rain = 0
KHA3 142327Z 17013KT 09/M00 A3021 RMK A01 T00851001  RH  055%=      5-min Rain = 0
KHA3 142328Z 16014KT 09/M00 A3021 RMK A01 T00851001  RH  055%=      5-min Rain = 0
KHA3 142329Z 16013KT 08/M00 A3021 RMK A01 T00841002  RH  054%=      5-min Rain = 0
KHA3 142330Z 17014KT 08/M00 A3021 RMK A01 T00841002  RH  055%=      5-min Rain = 0
KHA3 142331Z 18013KT 08/M00 A3021 RMK A01 T00841002  RH  055%=      5-min Rain = 0
KHA3 142332Z 18011KT 08/M00 A3021 RMK A01 T00831002  RH  055%=      5-min Rain = 0
KHA3 142333Z 18011KT 08/M00 A3021 RMK A01 T00831001  RH  055%=      5-min Rain = 0
KHA3 142334Z 18010KT 08/M00 A3021 RMK A01 T00821001  RH  056%=      5-min Rain = 0
KHA3 142335Z 17010KT 08/M00 A3021 RMK A01 T00831001  RH  056%=      5-min Rain = 0
KHA3 142336Z 17008KT 08/M00 A3021 RMK A01 T00831001  RH  055%=      5-min Rain = 0
KHA3 142337Z 15009KT 08/00 A3021 RMK A01 T00830000  RH  056%=      5-min Rain = 0
KHA3 142338Z 16010G15KT 08/00 A302 RMK A01 T008300-0  RH  056%=      5-min Rain = 0
KHA3 142339Z 16013KT 08/M00 A302 RMK A01 T00841001  RH  055%=      5-min Rain = 0
KHA3 142340Z 16011KT 08/M00 A302 RMK A01 T00841001  RH  055%=      5-min Rain = 0
KHA3 142341Z 16011KT 08/M00 A302 RMK A01 T00841001  RH  055%=      5-min Rain = 0
KHA3 142342Z 16012KT 08/M00 A302 RMK A01 T00831001  RH  055%=      5-min Rain = 0
KHA3 142343Z 16010KT 08/M00 A302 RMK A01 T00831001  RH  055%=      5-min Rain = 0
KHA3 142344Z 16010KT 08/M00 A302 RMK A01 T00831001  RH  056%=      5-min Rain = 0
KHA3 142345Z 16011KT 08/M00 A302 RMK A01 T00831001  RH  055%=      5-min Rain = 0
KHA3 142346Z 16010KT 08/M00 A302 RMK A01 T00831001  RH  055%=      5-min Rain = 0
KHA3 142347Z 16009KT 08/00 A302 RMK A01 T008300-0  RH  056%=      5-min Rain = 0
KHA3 142348Z 16011KT 08/00 A302 RMK A01 T00830000  RH  056%=      5-min Rain = 0
KHA3 142349Z 16012KT 08/00 A302 RMK A01 T00830000  RH  056%=      5-min Rain = 0
KHA3 142350Z 16011KT 08/00 A302 RMK A01 T008200-0  RH  056%=      5-min Rain = 0
KHA3 142351Z 17010KT 08/00 A302 RMK A01 T00830000  RH  056%=      5-min Rain = 0
KHA3 142352Z 17009KT 08/00 A302 RMK A01 T00820000  RH  056%=      5-min Rain = 0
KHA3 142353Z 17010KT 08/00 A302 RMK A01 T00820001  RH  057%=      5-min Rain = 0
KHA3 142354Z 16012KT 08/00 A302 RMK A01 T00810000  RH  057%=      5-min Rain = 0
KHA3 142355Z 17011KT 08/M00 A302 RMK A01 T00811001  RH  056%=      5-min Rain = 0
KHA3 142356Z 17012KT 08/M00 A302 RMK A01 T00811001  RH  056%=      5-min Rain = 0
KHA3 142357Z 17010KT 08/M00 A302 RMK A01 T00811001  RH  056%=      5-min Rain = 0
KHA3 142358Z 17010KT 08/00 A302 RMK A01 T00810000  RH  057%=      5-min Rain = 0
KHA3 142359Z 17010KT 08/00 A302 RMK A01 T008000-0  RH  057%=      5-min Rain = 0
KHA3 150000Z 18010KT 08/00 A302 RMK A01 T00790000  RH  057%=      5-min Rain = 0
KHA3 150001Z 17009KT 08/00 A302 RMK A01 T00780000  RH  058%=      5-min Rain = 0
KHA3 150002Z 17009KT 08/00 A302 RMK A01 T007800-0  RH  058%=      5-min Rain = 0
KHA3 150003Z 18010KT 08/00 A302 RMK A01 T00780000  RH  058%=      5-min Rain = 0
KHA3 150004Z 18010KT 08/00 A302 RMK A01 T00780000  RH  058%=      5-min Rain = 0
KHA3 150005Z 17010KT 08/00 A302 RMK A01 T00780000  RH  058%=      5-min Rain = 0
KHA3 150006Z 18009KT 08/00 A302 RMK A01 T00780000  RH  058%=      5-min Rain = 0
KHA3 150007Z 18009KT 08/00 A302 RMK A01 T00780001  RH  058%=      5-min Rain = 0
KHA3 150008Z 18010KT 08/00 A302 RMK A01 T00770001  RH  059%=      5-min Rain = 0
KHA3 150009Z 18011KT 08/00 A302 RMK A01 T007600-0  RH  058%=      5-min Rain = 0
KHA3 150010Z 18010KT 08/00 A302 RMK A01 T007700-0  RH  058%=      5-min Rain = 0
KHA3 150011Z 18010KT 08/00 A302 RMK A01 T00770000  RH  058%=      5-min Rain = 0
KHA3 150012Z 18008KT 08/00 A302 RMK A01 T00770000  RH  058%=      5-min Rain = 0
KHA3 150013Z 18009KT 08/00 A302 RMK A01 T007500-0  RH  059%=      5-min Rain = 0
KHA3 150014Z 18008KT 07/00 A302 RMK A01 T007400-0  RH  059%=      5-min Rain = 0
KHA3 150015Z 18009KT 07/00 A302 RMK A01 T007400-0  RH  059%=      5-min Rain = 0
KHA3 150016Z 18008KT 07/00 A302 RMK A01 T00740000  RH  060%=      5-min Rain = 0
KHA3 150017Z 18008KT 07/00 A302 RMK A01 T00730000  RH  060%=      5-min Rain = 0
KHA3 150018Z 18008KT 07/00 A302 RMK A01 T00730000  RH  060%=      5-min Rain = 0
KHA3 150019Z 18007KT 07/00 A302 RMK A01 T007200-0  RH  060%=      5-min Rain = 0
KHA3 150020Z 18007KT 07/00 A302 RMK A01 T00720000  RH  060%=      5-min Rain = 0
KHA3 150021Z 17008KT 07/M00 A302 RMK A01 T00701001  RH  061%=      5-min Rain = 0
KHA3 150022Z 17007KT 07/M00 A302 RMK A01 T00701001  RH  061%=      5-min Rain = 0
KHA3 150023Z 17007KT 07/M00 A302 RMK A01 T00691001  RH  061%=      5-min Rain = 0
KHA3 150024Z 17007KT 07/M00 A302 RMK A01 T00681001  RH  061%=      5-min Rain = 0
KHA3 150025Z 17007KT 07/M00 A302 RMK A01 T00681002  RH  061%=      5-min Rain = 0
KHA3 150026Z 17007KT 07/M00 A302 RMK A01 T00671002  RH  061%=      5-min Rain = 0
KHA3 150027Z 17007KT 07/M00 A3019 RMK A01 T00661002  RH  062%=      5-min Rain = 0
KHA3 150028Z 17006KT 07/M00 A3019 RMK A01 T00651002  RH  062%=      5-min Rain = 0
KHA3 150029Z 17006KT 06/M00 A3019 RMK A01 T00641003  RH  062%=      5-min Rain = 0
KHA3 150030Z 16006KT 06/M00 A3019 RMK A01 T00631004  RH  062%=      5-min Rain = 0
KHA3 150031Z 17006KT 06/M00 A3019 RMK A01 T00621004  RH  063%=      5-min Rain = 0
KHA3 150032Z 17006KT 06/M00 A3019 RMK A01 T00621003  RH  063%=      5-min Rain = 0
KHA3 150033Z 17006KT 06/M00 A3019 RMK A01 T00611003  RH  063%=      5-min Rain = 0
KHA3 150034Z 17006KT 06/M00 A3019 RMK A01 T00611003  RH  064%=      5-min Rain = 0
KHA3 150035Z 17006KT 06/M00 A3019 RMK A01 T00601003  RH  064%=      5-min Rain = 0
KHA3 150036Z 17006KT 06/M00 A3019 RMK A01 T00601003  RH  064%=      5-min Rain = 0
KHA3 150037Z 17006KT 06/M00 A302 RMK A01 T00591003  RH  064%=      5-min Rain = 0
KHA3 150038Z 17005KT 06/M00 A302 RMK A01 T00591003  RH  064%=      5-min Rain = 0
KHA3 150039Z 17005KT 06/M00 A3019 RMK A01 T00591003  RH  064%=      5-min Rain = 0
KHA3 150040Z 17005KT 06/M00 A302 RMK A01 T00591003  RH  064%=      5-min Rain = 0
KHA3 150041Z 17005KT 06/M00 A302 RMK A01 T00591003  RH  065%=      5-min Rain = 0
KHA3 150042Z 17005KT 06/M00 A302 RMK A01 T00591003  RH  065%=      5-min Rain = 0
KHA3 150043Z 17005KT 06/M00 A302 RMK A01 T00591003  RH  065%=      5-min Rain = 0
KHA3 150044Z 17005KT 06/M00 A302 RMK A01 T00581003  RH  065%=      5-min Rain = 0
KHA3 150045Z 17005KT 06/M00 A302 RMK A01 T00591003  RH  065%=      5-min Rain = 0
KHA3 150046Z 17005KT 06/M00 A3019 RMK A01 T00591003  RH  065%=      5-min Rain = 0
KHA3 150047Z 16005KT 06/M00 A3019 RMK A01 T00581003  RH  065%=      5-min Rain = 0
KHA3 150048Z 15004KT 06/M00 A3019 RMK A01 T00581002  RH  065%=      5-min Rain = 0
KHA3 150049Z 14004KT 06/M00 A3019 RMK A01 T00581003  RH  065%=      5-min Rain = 0
KHA3 150050Z 14005KT 06/M00 A3019 RMK A01 T00581003  RH  065%=      5-min Rain = 0
KHA3 150051Z 14004KT 06/M00 A3019 RMK A01 T00581003  RH  065%=      5-min Rain = 0
KHA3 150052Z 13004KT 06/M00 A3019 RMK A01 T00581003  RH  065%=      5-min Rain = 0
KHA3 150053Z 12004KT 06/M00 A3019 RMK A01 T00581002  RH  065%=      5-min Rain = 0
KHA3 150054Z 11004KT 06/M00 A3019 RMK A01 T00571002  RH  066%=      5-min Rain = 0
KHA3 150055Z 11004KT 06/M00 A3019 RMK A01 T00571002  RH  066%=      5-min Rain = 0
KHA3 150056Z 11004KT 06/M00 A3019 RMK A01 T00571001  RH  066%=      5-min Rain = 0
KHA3 150057Z 11004KT 06/M00 A3019 RMK A01 T00561001  RH  066%=      5-min Rain = 0
KHA3 150058Z 11004KT 06/M00 A3019 RMK A01 T00561002  RH  067%=      5-min Rain = 0
KHA3 150059Z 11004KT 06/M00 A3019 RMK A01 T00551002  RH  067%=      5-min Rain = 0
KHA3 150100Z 12004KT 06/M00 A3019 RMK A01 T00551002  RH  067%=      5-min Rain = 0
KHA3 150101Z 12003KT 06/M00 A3019 RMK A01 T00551002  RH  067%=      5-min Rain = 0
KHA3 150102Z 13004KT 06/M00 A3019 RMK A01 T00551001  RH  067%=      5-min Rain = 0
KHA3 150103Z 13004KT 06/M00 A3019 RMK A01 T00551002  RH  067%=      5-min Rain = 0
KHA3 150104Z 13004KT 06/M00 A3019 RMK A01 T00551002  RH  067%=      5-min Rain = 0
KHA3 150105Z 13004KT 06/M00 A3019 RMK A01 T00551002  RH  066%=      5-min Rain = 0
KHA3 150106Z 12004KT 06/M00 A3019 RMK A01 T00551002  RH  066%=      5-min Rain = 0
KHA3 150107Z 12004KT 06/M00 A3019 RMK A01 T00551003  RH  066%=      5-min Rain = 0
KHA3 150108Z 12004KT 05/M00 A3019 RMK A01 T00541002  RH  067%=      5-min Rain = 0
KHA3 150109Z 13005KT 05/M00 A3019 RMK A01 T00541002  RH  067%=      5-min Rain = 0
KHA3 150110Z 13004KT 05/M00 A3019 RMK A01 T00541002  RH  067%=      5-min Rain = 0
KHA3 150111Z 14004KT 05/M00 A3019 RMK A01 T00541001  RH  068%=      5-min Rain = 0
KHA3 150112Z 14005KT 05/M00 A3019 RMK A01 T00541001  RH  068%=      5-min Rain = 0
KHA3 150113Z 14004KT 06/M00 A3019 RMK A01 T00551001  RH  067%=      5-min Rain = 0
KHA3 150114Z 14004KT 06/M00 A3019 RMK A01 T00561001  RH  067%=      5-min Rain = 0
KHA3 150115Z 14004KT 06/M00 A3019 RMK A01 T00561001  RH  067%=      5-min Rain = 0
KHA3 150116Z 15004KT 06/M00 A3019 RMK A01 T00571001  RH  066%=      5-min Rain = 0
KHA3 150117Z 15005KT 06/M00 A3019 RMK A01 T00571002  RH  066%=      5-min Rain = 0
KHA3 150118Z 15005KT 06/M00 A3019 RMK A01 T00571002  RH  066%=      5-min Rain = 0
KHA3 150119Z 15005KT 06/M00 A3019 RMK A01 T00571001  RH  066%=      5-min Rain = 0
KHA3 150120Z 16005KT 06/M00 A3019 RMK A01 T00571001  RH  066%=      5-min Rain = 0
KHA3 150121Z 16005KT 06/M00 A3019 RMK A01 T00571001  RH  067%=      5-min Rain = 0
KHA3 150122Z 16005KT 06/M00 A3019 RMK A01 T00571001  RH  067%=      5-min Rain = 0
KHA3 150123Z 16005KT 06/M00 A3019 RMK A01 T00571001  RH  067%=      5-min Rain = 0
KHA3 150124Z 16005KT 06/M00 A3019 RMK A01 T00571001  RH  067%=      5-min Rain = 0
KHA3 150125Z 15005KT 06/M00 A3019 RMK A01 T00571001  RH  067%=      5-min Rain = 0
KHA3 150126Z 15005KT 06/M00 A3019 RMK A01 T00571001  RH  066%=      5-min Rain = 0
KHA3 150127Z 14005KT 06/M00 A3019 RMK A01 T00561001  RH  066%=      5-min Rain = 0
KHA3 150128Z 13005KT 06/M00 A3019 RMK A01 T00571001  RH  066%=      5-min Rain = 0
KHA3 150129Z 12005KT 06/M00 A3019 RMK A01 T00561002  RH  066%=      5-min Rain = 0
KHA3 150130Z 12005KT 05/M00 A3019 RMK A01 T00531003  RH  067%=      5-min Rain = 0
KHA3 150131Z 12005KT 05/M00 A3019 RMK A01 T00521002  RH  068%=      5-min Rain = 0
KHA3 150132Z 12005KT 05/M00 A3019 RMK A01 T00501003  RH  069%=      5-min Rain = 0
KHA3 150133Z 13006KT 05/M00 A3019 RMK A01 T00481003  RH  070%=      5-min Rain = 0
KHA3 150134Z 13006KT 05/M00 A3019 RMK A01 T00481002  RH  070%=      5-min Rain = 0
KHA3 150135Z 12006KT 05/M00 A3019 RMK A01 T00481003  RH  070%=      5-min Rain = 0
KHA3 150136Z 12006KT 05/M00 A3019 RMK A01 T00481003  RH  070%=      5-min Rain = 0
KHA3 150137Z 12006KT 05/M00 A3019 RMK A01 T00481003  RH  070%=      5-min Rain = 0
KHA3 150138Z 12006KT 05/M00 A3019 RMK A01 T00471003  RH  070%=      5-min Rain = 0
KHA3 150139Z 12006KT 05/M00 A3019 RMK A01 T00471003  RH  070%=      5-min Rain = 0
KHA3 150140Z 12006KT 05/M00 A3019 RMK A01 T00471003  RH  070%=      5-min Rain = 0
KHA3 150141Z 11006KT 05/M00 A3019 RMK A01 T00451004  RH  070%=      5-min Rain = 0
KHA3 150142Z 11006KT 04/M01 A3019 RMK A01 T00441005  RH  071%=      5-min Rain = 0
KHA3 150143Z 11006KT 04/M01 A3019 RMK A01 T00421005  RH  071%=      5-min Rain = 0
KHA3 150144Z 12006KT 04/M01 A3019 RMK A01 T00411006  RH  072%=      5-min Rain = 0
KHA3 150145Z 12006KT 04/M01 A3019 RMK A01 T00411005  RH  072%=      5-min Rain = 0
KHA3 150146Z 12006KT 04/M00 A3019 RMK A01 T00421004  RH  072%=      5-min Rain = 0
KHA3 150147Z 12006KT 04/M00 A3019 RMK A01 T00431002  RH  072%=      5-min Rain = 0
KHA3 150148Z 12006KT 04/M00 A3019 RMK A01 T00441003  RH  072%=      5-min Rain = 0
KHA3 150149Z 13006KT 05/M00 A3019 RMK A01 T00451003  RH  071%=      5-min Rain = 0
KHA3 150150Z 13006KT 05/M00 A3019 RMK A01 T00451003  RH  071%=      5-min Rain = 0
KHA3 150151Z 13007KT 04/M00 A3019 RMK A01 T00441003  RH  071%=      5-min Rain = 0
KHA3 150152Z 13007KT 04/M00 A3019 RMK A01 T00441003  RH  072%=      5-min Rain = 0
KHA3 150153Z 13007KT 04/M00 A3019 RMK A01 T00431003  RH  072%=      5-min Rain = 0
KHA3 150154Z 13008KT 04/M00 A3019 RMK A01 T00431002  RH  073%=      5-min Rain = 0
KHA3 150155Z 13008KT 04/M00 A3019 RMK A01 T00421002  RH  073%=      5-min Rain = 0
KHA3 150156Z 13008KT 04/M00 A3018 RMK A01 T00431002  RH  073%=      5-min Rain = 0
KHA3 150157Z 13008KT 04/M00 A3018 RMK A01 T00431001  RH  073%=      5-min Rain = 0
KHA3 150158Z 12008KT 04/M00 A3019 RMK A01 T00431001  RH  073%=      5-min Rain = 0
KHA3 150159Z 12008KT 04/M00 A3019 RMK A01 T00431002  RH  073%=      5-min Rain = 0
KHA3 150200Z 12008KT 04/M00 A3019 RMK A01 T00411003  RH  073%=      5-min Rain = 0
KHA3 150201Z 13008KT 04/M00 A3019 RMK A01 T00401003  RH  073%=      5-min Rain = 0
KHA3 150202Z 13008KT 04/M00 A3018 RMK A01 T00401002  RH  074%=      5-min Rain = 0
KHA3 150203Z 14008KT 04/00 A3018 RMK A01 T004200-0  RH  074%=      5-min Rain = 0
KHA3 150204Z 13008KT 05/00 A3018 RMK A01 T00460001  RH  073%=      5-min Rain = 0
KHA3 150205Z 13009KT 05/00 A3018 RMK A01 T00470001  RH  072%=      5-min Rain = 0
KHA3 150206Z 13008KT 05/00 A3018 RMK A01 T004700-0  RH  071%=      5-min Rain = 0
KHA3 150207Z 13008KT 05/M00 A3018 RMK A01 T00451001  RH  072%=      5-min Rain = 0
KHA3 150208Z 13008KT 04/M00 A3018 RMK A01 T00441001  RH  073%=      5-min Rain = 0
KHA3 150209Z 13008KT 04/M00 A3018 RMK A01 T00431001  RH  073%=      5-min Rain = 0
KHA3 150210Z 13008KT 04/00 A3018 RMK A01 T004400-0  RH  073%=      5-min Rain = 0
KHA3 150211Z 13009KT 04/00 A3018 RMK A01 T004400-0  RH  073%=      5-min Rain = 0
KHA3 150212Z 13008KT 04/00 A3018 RMK A01 T004400-0  RH  073%=      5-min Rain = 0
KHA3 150213Z 14008KT 04/00 A3018 RMK A01 T00440000  RH  073%=      5-min Rain = 0
KHA3 150214Z 13008KT 05/00 A3018 RMK A01 T00450001  RH  073%=      5-min Rain = 0
KHA3 150215Z 13007KT 05/00 A3018 RMK A01 T00470001  RH  072%=      5-min Rain = 0
KHA3 150216Z 13007KT 05/00 A3018 RMK A01 T00480001  RH  071%=      5-min Rain = 0
KHA3 150217Z 13008KT 05/00 A3018 RMK A01 T00480000  RH  071%=      5-min Rain = 0
KHA3 150218Z 13008KT 05/00 A3018 RMK A01 T004800-0  RH  071%=      5-min Rain = 0
KHA3 150219Z 14007KT 05/00 A3018 RMK A01 T004800-0  RH  071%=      5-min Rain = 0
KHA3 150220Z 13007KT 05/M00 A3018 RMK A01 T00471001  RH  071%=      5-min Rain = 0
KHA3 150221Z 13007KT 05/M00 A3018 RMK A01 T00461001  RH  071%=      5-min Rain = 0
KHA3 150222Z 13006KT 05/M00 A3018 RMK A01 T00461001  RH  072%=      5-min Rain = 0
KHA3 150223Z 13006KT 05/M00 A3018 RMK A01 T00461001  RH  072%=      5-min Rain = 0
KHA3 150224Z 13007KT 05/M00 A3018 RMK A01 T00461001  RH  071%=      5-min Rain = 0
KHA3 150225Z 13006KT 05/M00 A3018 RMK A01 T00451001  RH  072%=      5-min Rain = 0
KHA3 150226Z 13006KT 05/M00 A3018 RMK A01 T00451001  RH  072%=      5-min Rain = 0
KHA3 150227Z 13007KT 04/M00 A3018 RMK A01 T00441001  RH  072%=      5-min Rain = 0
KHA3 150228Z 13007KT 04/M00 A3018 RMK A01 T00441001  RH  072%=      5-min Rain = 0
KHA3 150229Z 13006KT 04/M00 A3018 RMK A01 T00431002  RH  072%=      5-min Rain = 0
KHA3 150230Z 12006KT 04/M00 A3018 RMK A01 T00431002  RH  073%=      5-min Rain = 0
KHA3 150231Z 12006KT 04/M00 A3018 RMK A01 T00431002  RH  073%=      5-min Rain = 0
KHA3 150232Z 13005KT 04/M00 A3018 RMK A01 T00431002  RH  073%=      5-min Rain = 0
KHA3 150233Z 13006KT 04/M00 A3018 RMK A01 T00431001  RH  073%=      5-min Rain = 0
KHA3 150234Z 13005KT 04/M00 A3018 RMK A01 T00431001  RH  073%=      5-min Rain = 0
KHA3 150235Z 13005KT 04/M00 A3018 RMK A01 T00431002  RH  073%=      5-min Rain = 0
KHA3 150236Z 15005KT 04/M00 A3018 RMK A01 T00441001  RH  073%=      5-min Rain = 0
KHA3 150237Z 15005KT 04/M00 A3018 RMK A01 T00441001  RH  072%=      5-min Rain = 0
KHA3 150238Z 15006KT 05/M00 A3018 RMK A01 T00451001  RH  072%=      5-min Rain = 0
KHA3 150239Z 15006KT 05/00 A3018 RMK A01 T00460000  RH  072%=      5-min Rain = 0
KHA3 150240Z 16006KT 05/00 A3018 RMK A01 T00460000  RH  072%=      5-min Rain = 0
KHA3 150241Z 16007KT 05/00 A3018 RMK A01 T00460000  RH  072%=      5-min Rain = 0
KHA3 150242Z 16007KT 05/00 A3018 RMK A01 T004600-0  RH  072%=      5-min Rain = 0
KHA3 150243Z 16008KT 05/00 A3018 RMK A01 T00450000  RH  072%=      5-min Rain = 0
KHA3 150244Z 16008KT 05/00 A3018 RMK A01 T00450000  RH  073%=      5-min Rain = 0
KHA3 150245Z 16008KT 05/00 A3018 RMK A01 T00460001  RH  072%=      5-min Rain = 0
KHA3 150246Z 16008KT 05/00 A3018 RMK A01 T00470001  RH  072%=      5-min Rain = 0
KHA3 150247Z 16009KT 05/00 A3018 RMK A01 T00470001  RH  072%=      5-min Rain = 0
KHA3 150248Z 16009KT 05/00 A3018 RMK A01 T00470002  RH  072%=      5-min Rain = 0
KHA3 150249Z 16009KT 05/00 A3018 RMK A01 T00480002  RH  072%=      5-min Rain = 0
KHA3 150250Z 16009KT 05/00 A3018 RMK A01 T00480002  RH  072%=      5-min Rain = 0
KHA3 150251Z 16009KT 05/00 A3018 RMK A01 T00480002  RH  072%=      5-min Rain = 0
KHA3 150252Z 16009KT 05/00 A3018 RMK A01 T00480003  RH  072%=      5-min Rain = 0
KHA3 150253Z 16009KT 05/00 A3018 RMK A01 T00480002  RH  072%=      5-min Rain = 0
KHA3 150254Z 16008KT 05/00 A3018 RMK A01 T00480002  RH  072%=      5-min Rain = 0
KHA3 150255Z 16008KT 05/00 A3018 RMK A01 T00470002  RH  072%=      5-min Rain = 0
KHA3 150256Z 16008KT 05/00 A3018 RMK A01 T00460002  RH  073%=      5-min Rain = 0
KHA3 150257Z 16008KT 05/00 A3018 RMK A01 T00460002  RH  073%=      5-min Rain = 0
KHA3 150258Z 16008KT 05/00 A3018 RMK A01 T00460002  RH  073%=      5-min Rain = 0
KHA3 150259Z 16008KT 05/00 A3018 RMK A01 T00450001  RH  073%=      5-min Rain = 0
KHA3 150300Z 16008KT 05/00 A3017 RMK A01 T00450002  RH  074%=      5-min Rain = 0
KHA3 150301Z 15008KT 04/00 A3017 RMK A01 T00440001  RH  074%=      5-min Rain = 0
KHA3 150302Z 15009KT 04/00 A3017 RMK A01 T00440001  RH  074%=      5-min Rain = 0
KHA3 150303Z 16009KT 04/00 A3017 RMK A01 T00430002  RH  074%=      5-min Rain = 0
KHA3 150304Z 15009KT 04/00 A3017 RMK A01 T00430001  RH  074%=      5-min Rain = 0
KHA3 150305Z 15009KT 04/00 A3017 RMK A01 T00440002  RH  074%=      5-min Rain = 0
KHA3 150306Z 16008KT 04/00 A3017 RMK A01 T00440002  RH  074%=      5-min Rain = 0
KHA3 150307Z 16009KT 04/00 A3017 RMK A01 T00430002  RH  074%=      5-min Rain = 0
KHA3 150308Z 16008KT 04/00 A3017 RMK A01 T00430002  RH  074%=      5-min Rain = 0
KHA3 150309Z 16008KT 04/00 A3017 RMK A01 T00430002  RH  074%=      5-min Rain = 0
KHA3 150310Z 16009KT 04/00 A3017 RMK A01 T00430002  RH  074%=      5-min Rain = 0
KHA3 150311Z 16008KT 04/00 A3017 RMK A01 T00440002  RH  074%=      5-min Rain = 0
KHA3 150312Z 16008KT 04/00 A3017 RMK A01 T00430001  RH  074%=      5-min Rain = 0
KHA3 150313Z 16008KT 04/00 A3017 RMK A01 T00430002  RH  074%=      5-min Rain = 0
KHA3 150314Z 16008KT 04/00 A3017 RMK A01 T00430002  RH  074%=      5-min Rain = 0
KHA3 150315Z 16007KT 04/00 A3017 RMK A01 T00430002  RH  074%=      5-min Rain = 0
KHA3 150316Z 16008KT 04/00 A3017 RMK A01 T00420001  RH  075%=      5-min Rain = 0
KHA3 150317Z 16008KT 04/00 A3017 RMK A01 T00420002  RH  075%=      5-min Rain = 0
KHA3 150318Z 16007KT 04/00 A3017 RMK A01 T00420002  RH  075%=      5-min Rain = 0
KHA3 150319Z 16007KT 04/00 A3017 RMK A01 T00420002  RH  075%=      5-min Rain = 0
KHA3 150320Z 17007KT 04/00 A3017 RMK A01 T00420001  RH  075%=      5-min Rain = 0
KHA3 150321Z 16007KT 04/00 A3017 RMK A01 T00420002  RH  075%=      5-min Rain = 0
KHA3 150322Z 17007KT 04/00 A3017 RMK A01 T00410002  RH  075%=      5-min Rain = 0
KHA3 150323Z 17007KT 04/00 A3017 RMK A01 T00410001  RH  075%=      5-min Rain = 0
KHA3 150324Z 17006KT 04/00 A3017 RMK A01 T00410002  RH  076%=      5-min Rain = 0
KHA3 150325Z 17006KT 04/00 A3017 RMK A01 T00400001  RH  076%=      5-min Rain = 0
KHA3 150326Z 17006KT 04/00 A3017 RMK A01 T00390001  RH  076%=      5-min Rain = 0
KHA3 150327Z 17006KT 04/00 A3017 RMK A01 T00390001  RH  077%=      5-min Rain = 0
KHA3 150328Z 17006KT 04/00 A3017 RMK A01 T00380001  RH  077%=      5-min Rain = 0
KHA3 150329Z 17007KT 04/00 A3017 RMK A01 T00390001  RH  077%=      5-min Rain = 0
KHA3 150330Z 17007KT 04/00 A3017 RMK A01 T00380001  RH  077%=      5-min Rain = 0
KHA3 150331Z 17008KT 04/00 A3017 RMK A01 T00390002  RH  077%=      5-min Rain = 0
KHA3 150332Z 17008KT 04/00 A3017 RMK A01 T00400002  RH  076%=      5-min Rain = 0
KHA3 150333Z 17008KT 04/00 A3017 RMK A01 T00410003  RH  076%=      5-min Rain = 0
KHA3 150334Z 18008KT 04/00 A3017 RMK A01 T00400003  RH  076%=      5-min Rain = 0
KHA3 150335Z 17009KT 04/00 A3017 RMK A01 T00400003  RH  076%=      5-min Rain = 0
KHA3 150336Z 17009KT 04/00 A3017 RMK A01 T00410003  RH  076%=      5-min Rain = 0
KHA3 150337Z 17009KT 04/00 A3017 RMK A01 T00420003  RH  076%=      5-min Rain = 0
KHA3 150338Z 17009KT 04/00 A3017 RMK A01 T00430004  RH  076%=      5-min Rain = 0
KHA3 150339Z 17009KT 04/00 A3017 RMK A01 T00440004  RH  075%=      5-min Rain = 0
KHA3 150340Z 17010KT 05/01 A3017 RMK A01 T00450005  RH  075%=      5-min Rain = 0
KHA3 150341Z 17010KT 05/01 A3017 RMK A01 T00460005  RH  075%=      5-min Rain = 0
KHA3 150342Z 17010KT 05/01 A3017 RMK A01 T00460005  RH  075%=      5-min Rain = 0
KHA3 150343Z 17010KT 05/01 A3017 RMK A01 T00460005  RH  075%=      5-min Rain = 0
KHA3 150344Z 17010KT 05/01 A3017 RMK A01 T00460005  RH  075%=      5-min Rain = 0
KHA3 150345Z 18009KT 05/01 A3017 RMK A01 T00460005  RH  075%=      5-min Rain = 0
KHA3 150346Z 17010KT 05/01 A3017 RMK A01 T00460005  RH  075%=      5-min Rain = 0
KHA3 150347Z 18010KT 05/01 A3017 RMK A01 T00460005  RH  075%=      5-min Rain = 0
KHA3 150348Z 18009KT 05/01 A3017 RMK A01 T00460005  RH  075%=      5-min Rain = 0
KHA3 150349Z 17009KT 05/01 A3017 RMK A01 T00470005  RH  075%=      5-min Rain = 0
KHA3 150350Z 17010KT 05/01 A3017 RMK A01 T00470006  RH  075%=      5-min Rain = 0
KHA3 150351Z 17009KT 05/01 A3017 RMK A01 T00480005  RH  074%=      5-min Rain = 0
KHA3 150352Z 17010KT 05/01 A3017 RMK A01 T00480006  RH  074%=      5-min Rain = 0
KHA3 150353Z 18010KT 05/01 A3017 RMK A01 T00490006  RH  074%=      5-min Rain = 0
KHA3 150354Z 18009KT 05/01 A3017 RMK A01 T00480005  RH  074%=      5-min Rain = 0
KHA3 150355Z 17009KT 05/01 A3017 RMK A01 T00490005  RH  074%=      5-min Rain = 0
KHA3 150356Z 18009KT 05/01 A3017 RMK A01 T00480005  RH  074%=      5-min Rain = 0
KHA3 150357Z 17008KT 05/01 A3017 RMK A01 T00490006  RH  074%=      5-min Rain = 0
KHA3 150358Z 17009KT 05/01 A3017 RMK A01 T00480006  RH  074%=      5-min Rain = 0
KHA3 150359Z 17009KT 05/01 A3017 RMK A01 T00480005  RH  074%=      5-min Rain = 0
KHA3 150400Z 17009KT 05/01 A3017 RMK A01 T00480005  RH  074%=      5-min Rain = 0
KHA3 150401Z 17009KT 05/01 A3017 RMK A01 T00480005  RH  074%=      5-min Rain = 0
KHA3 150402Z 17008KT 05/01 A3017 RMK A01 T00480005  RH  073%=      5-min Rain = 0
KHA3 150403Z 18009KT 05/01 A3017 RMK A01 T00490005  RH  073%=      5-min Rain = 0
KHA3 150404Z 17009KT 05/01 A3017 RMK A01 T00490005  RH  073%=      5-min Rain = 0
KHA3 150405Z 17009KT 05/01 A3017 RMK A01 T00490005  RH  073%=      5-min Rain = 0
KHA3 150406Z 17010KT 05/01 A3017 RMK A01 T00490005  RH  073%=      5-min Rain = 0
KHA3 150407Z 17010KT 05/01 A3017 RMK A01 T00490005  RH  073%=      5-min Rain = 0
KHA3 150408Z 17009KT 05/01 A3017 RMK A01 T00490005  RH  073%=      5-min Rain = 0
KHA3 150409Z 17011KT 05/01 A3017 RMK A01 T00490005  RH  073%=      5-min Rain = 0
KHA3 150410Z 17010KT 05/01 A3017 RMK A01 T00500006  RH  073%=      5-min Rain = 0
KHA3 150411Z 17010KT 05/01 A3017 RMK A01 T00510005  RH  072%=      5-min Rain = 0
KHA3 150412Z 17011KT 05/01 A3016 RMK A01 T00510005  RH  072%=      5-min Rain = 0
KHA3 150413Z 17010KT 05/01 A3016 RMK A01 T00510006  RH  072%=      5-min Rain = 0
KHA3 150414Z 17012KT 05/01 A3016 RMK A01 T00510005  RH  072%=      5-min Rain = 0
KHA3 150415Z 17011KT 05/01 A3016 RMK A01 T00520005  RH  072%=      5-min Rain = 0
KHA3 150416Z 17011KT 05/01 A3016 RMK A01 T00530006  RH  072%=      5-min Rain = 0
KHA3 150417Z 17012KT 05/01 A3016 RMK A01 T00530005  RH  072%=      5-min Rain = 0
KHA3 150418Z 17011KT 05/01 A3016 RMK A01 T00530006  RH  072%=      5-min Rain = 0
KHA3 150419Z 17011KT 05/01 A3016 RMK A01 T00530006  RH  072%=      5-min Rain = 0
KHA3 150420Z 17012KT 05/01 A3016 RMK A01 T00530006  RH  072%=      5-min Rain = 0
KHA3 150421Z 17011KT 05/01 A3016 RMK A01 T00530005  RH  071%=      5-min Rain = 0
KHA3 150422Z 17012KT 05/01 A3016 RMK A01 T00530006  RH  071%=      5-min Rain = 0
KHA3 150423Z 17011KT 05/01 A3016 RMK A01 T00530006  RH  071%=      5-min Rain = 0
KHA3 150424Z 17011KT 05/01 A3016 RMK A01 T00540006  RH  071%=      5-min Rain = 0
KHA3 150425Z 17012KT 05/01 A3016 RMK A01 T00530005  RH  071%=      5-min Rain = 0
KHA3 150426Z 17013KT 05/01 A3016 RMK A01 T00540006  RH  071%=      5-min Rain = 0
KHA3 150427Z 17012KT 06/01 A3016 RMK A01 T00550006  RH  071%=      5-min Rain = 0
KHA3 150428Z 17011KT 06/01 A3016 RMK A01 T00550006  RH  070%=      5-min Rain = 0
KHA3 150429Z 17011KT 06/01 A3016 RMK A01 T00550006  RH  071%=      5-min Rain = 0
KHA3 150430Z 17012KT 05/01 A3016 RMK A01 T00540006  RH  071%=      5-min Rain = 0
KHA3 150431Z 17011KT 06/01 A3016 RMK A01 T00550006  RH  071%=      5-min Rain = 0
KHA3 150432Z 17012KT 06/01 A3015 RMK A01 T00550006  RH  071%=      5-min Rain = 0
KHA3 150433Z 17012KT 06/01 A3015 RMK A01 T00560006  RH  070%=      5-min Rain = 0
KHA3 150434Z 17012KT 06/01 A3015 RMK A01 T00570006  RH  070%=      5-min Rain = 0
KHA3 150435Z 17012KT 06/01 A3015 RMK A01 T00570006  RH  070%=      5-min Rain = 0
KHA3 150436Z 17013KT 06/01 A3015 RMK A01 T00570006  RH  069%=      5-min Rain = 0
KHA3 150437Z 17012KT 06/01 A3015 RMK A01 T00580006  RH  069%=      5-min Rain = 0
KHA3 150438Z 17012KT 06/01 A3015 RMK A01 T00580005  RH  069%=      5-min Rain = 0
KHA3 150439Z 17012KT 06/01 A3015 RMK A01 T00580005  RH  069%=      5-min Rain = 0
KHA3 150440Z 17012KT 06/01 A3015 RMK A01 T00580005  RH  069%=      5-min Rain = 0
KHA3 150441Z 17012KT 06/01 A3015 RMK A01 T00580005  RH  069%=      5-min Rain = 0
KHA3 150442Z 17012KT 06/01 A3015 RMK A01 T00580005  RH  069%=      5-min Rain = 0
KHA3 150443Z 17011KT 06/01 A3015 RMK A01 T00580005  RH  069%=      5-min Rain = 0
KHA3 150444Z 18012KT 06/01 A3015 RMK A01 T00580005  RH  069%=      5-min Rain = 0
KHA3 150445Z 17012KT 06/01 A3015 RMK A01 T00580006  RH  069%=      5-min Rain = 0
KHA3 150446Z 18011KT 06/01 A3015 RMK A01 T00580005  RH  069%=      5-min Rain = 0
KHA3 150447Z 17014KT 06/01 A3015 RMK A01 T00590005  RH  068%=      5-min Rain = 0
KHA3 150448Z 17011KT 06/01 A3015 RMK A01 T00600006  RH  068%=      5-min Rain = 0
KHA3 150449Z 18013KT 06/01 A3015 RMK A01 T00600005  RH  068%=      5-min Rain = 0
KHA3 150450Z 18012KT 06/01 A3015 RMK A01 T00600005  RH  068%=      5-min Rain = 0
KHA3 150451Z 18012G17KT 06/01 A3015 RMK A01 T00600005  RH  068%=      5-min Rain = 0
KHA3 150452Z 17012KT 06/01 A3015 RMK A01 T00610005  RH  067%=      5-min Rain = 0
KHA3 150453Z 18012KT 06/01 A3015 RMK A01 T00620005  RH  067%=      5-min Rain = 0
KHA3 150454Z 17013KT 06/01 A3015 RMK A01 T00620005  RH  067%=      5-min Rain = 0
KHA3 150455Z 18012KT 06/01 A3015 RMK A01 T00620005  RH  067%=      5-min Rain = 0
KHA3 150456Z 17012KT 06/01 A3015 RMK A01 T00620005  RH  066%=      5-min Rain = 0
KHA3 150457Z 18012KT 06/01 A3015 RMK A01 T00620005  RH  067%=      5-min Rain = 0
KHA3 150458Z 17013KT 06/00 A3014 RMK A01 T00620004  RH  066%=      5-min Rain = 0
KHA3 150459Z 18016KT 06/01 A3014 RMK A01 T00640005  RH  066%=      5-min Rain = 0
KHA3 150500Z 17013KT 06/01 A3014 RMK A01 T00640005  RH  066%=      5-min Rain = 0
KHA3 150501Z 17013KT 06/01 A3014 RMK A01 T00640005  RH  066%=      5-min Rain = 0
KHA3 150502Z 17014KT 07/00 A3014 RMK A01 T00650004  RH  065%=      5-min Rain = 0
KHA3 150503Z 17014KT 07/01 A3014 RMK A01 T00660005  RH  065%=      5-min Rain = 0
KHA3 150504Z 18013KT 07/01 A3014 RMK A01 T00660005  RH  065%=      5-min Rain = 0
KHA3 150505Z 17012KT 07/01 A3014 RMK A01 T00650005  RH  065%=      5-min Rain = 0
KHA3 150506Z 18014KT 07/01 A3014 RMK A01 T00650005  RH  065%=      5-min Rain = 0
KHA3 150507Z 17015KT 07/00 A3014 RMK A01 T00650004  RH  065%=      5-min Rain = 0
KHA3 150508Z 18013KT 07/00 A3014 RMK A01 T00650004  RH  065%=      5-min Rain = 0
KHA3 150509Z 18014KT 07/00 A3014 RMK A01 T00660004  RH  065%=      5-min Rain = 0
KHA3 150510Z 18014KT 07/00 A3014 RMK A01 T00660004  RH  065%=      5-min Rain = 0
KHA3 150511Z 18014KT 07/00 A3014 RMK A01 T00660004  RH  065%=      5-min Rain = 0
KHA3 150512Z 18012KT 07/00 A3014 RMK A01 T00660004  RH  065%=      5-min Rain = 0
KHA3 150513Z 18012KT 07/00 A3014 RMK A01 T00650004  RH  065%=      5-min Rain = 0
KHA3 150514Z 18011G17KT 07/00 A3014 RMK A01 T00650004  RH  065%=      5-min Rain = 0
KHA3 150515Z 18013KT 07/00 A3014 RMK A01 T00650004  RH  065%=      5-min Rain = 0
KHA3 150516Z 18013KT 07/00 A3014 RMK A01 T00650004  RH  065%=      5-min Rain = 0
KHA3 150517Z 18014KT 07/00 A3014 RMK A01 T00660004  RH  065%=      5-min Rain = 0
KHA3 150518Z 18013KT 07/00 A3014 RMK A01 T00670004  RH  064%=      5-min Rain = 0
KHA3 150519Z 18014KT 07/00 A3014 RMK A01 T00670004  RH  064%=      5-min Rain = 0
KHA3 150520Z 18014KT 07/00 A3014 RMK A01 T00670004  RH  064%=      5-min Rain = 0
KHA3 150521Z 18015KT 07/00 A3014 RMK A01 T00660004  RH  065%=      5-min Rain = 0
KHA3 150522Z 18015KT 07/01 A3014 RMK A01 T00670005  RH  064%=      5-min Rain = 0
KHA3 150523Z 18011KT 07/01 A3014 RMK A01 T00670005  RH  064%=      5-min Rain = 0
KHA3 150524Z 18013KT 07/01 A3014 RMK A01 T00660005  RH  065%=      5-min Rain = 0
KHA3 150525Z 18015KT 07/00 A3014 RMK A01 T00650004  RH  065%=      5-min Rain = 0
KHA3 150526Z 18013KT 07/01 A3014 RMK A01 T00660005  RH  065%=      5-min Rain = 0
KHA3 150527Z 18014KT 07/01 A3014 RMK A01 T00660005  RH  065%=      5-min Rain = 0
KHA3 150528Z 18014KT 07/00 A3014 RMK A01 T00660004  RH  065%=      5-min Rain = 0
KHA3 150529Z 18014KT 07/01 A3014 RMK A01 T00660005  RH  065%=      5-min Rain = 0
KHA3 150530Z 18013G19KT 07/01 A3014 RMK A01 T00660005  RH  065%=      5-min Rain = 0
KHA3 150531Z 18012KT 07/01 A3014 RMK A01 T00650005  RH  065%=      5-min Rain = 0
KHA3 150532Z 18013KT 07/01 A3014 RMK A01 T00650005  RH  065%=      5-min Rain = 0
KHA3 150533Z 18012KT 07/01 A3014 RMK A01 T00650005  RH  065%=      5-min Rain = 0
KHA3 150534Z 18015KT 07/01 A3014 RMK A01 T00650005  RH  065%=      5-min Rain = 0
KHA3 150535Z 18015KT 07/01 A3014 RMK A01 T00650005  RH  065%=      5-min Rain = 0
KHA3 150536Z 18015KT 07/01 A3014 RMK A01 T00660005  RH  065%=      5-min Rain = 0
KHA3 150537Z 18015KT 07/01 A3014 RMK A01 T00660005  RH  065%=      5-min Rain = 0
KHA3 150538Z 18018KT 07/01 A3013 RMK A01 T00670005  RH  065%=      5-min Rain = 0
KHA3 150539Z 18016KT 07/01 A3013 RMK A01 T00670005  RH  065%=      5-min Rain = 0
KHA3 150540Z 18015KT 07/01 A3013 RMK A01 T00670005  RH  064%=      5-min Rain = 0
KHA3 150541Z 18014KT 07/01 A3013 RMK A01 T00670005  RH  064%=      5-min Rain = 0
KHA3 150542Z 18014KT 07/01 A3013 RMK A01 T00670005  RH  065%=      5-min Rain = 0
KHA3 150543Z 18016KT 07/01 A3013 RMK A01 T00660005  RH  065%=      5-min Rain = 0
KHA3 150544Z 18015KT 07/01 A3013 RMK A01 T00660005  RH  065%=      5-min Rain = 0
KHA3 150545Z 18012KT 07/01 A3013 RMK A01 T00660005  RH  065%=      5-min Rain = 0
KHA3 150546Z 18012KT 07/01 A3013 RMK A01 T00660005  RH  065%=      5-min Rain = 0
KHA3 150547Z 17014KT 07/01 A3013 RMK A01 T00650005  RH  065%=      5-min Rain = 0
KHA3 150548Z 18013KT 07/01 A3013 RMK A01 T00650005  RH  065%=      5-min Rain = 0
KHA3 150549Z 18013KT 07/01 A3013 RMK A01 T00650005  RH  065%=      5-min Rain = 0
KHA3 150550Z 18013G18KT 07/01 A3013 RMK A01 T00650006  RH  066%=      5-min Rain = 0
KHA3 150551Z 18015KT 07/01 A3013 RMK A01 T00650005  RH  066%=      5-min Rain = 0
KHA3 150552Z 18015KT 07/01 A3013 RMK A01 T00650006  RH  066%=      5-min Rain = 0
KHA3 150553Z 18014KT 07/01 A3013 RMK A01 T00650005  RH  066%=      5-min Rain = 0
KHA3 150554Z 18014KT 07/01 A3013 RMK A01 T00650006  RH  065%=      5-min Rain = 0
KHA3 150555Z 18014KT 07/01 A3013 RMK A01 T00660006  RH  065%=      5-min Rain = 0
KHA3 150556Z 18016KT 07/01 A3013 RMK A01 T00660006  RH  065%=      5-min Rain = 0
KHA3 150557Z 18014KT 07/01 A3013 RMK A01 T00660006  RH  066%=      5-min Rain = 0
KHA3 150558Z 18014KT 07/01 A3013 RMK A01 T00650006  RH  066%=      5-min Rain = 0
KHA3 150559Z 18015KT 07/01 A3013 RMK A01 T00650006  RH  066%=      5-min Rain = 0

Page generated in 0.129 seconds.